Wetterdaten: Sonntag, 22.09.2019
Datum Zeit Temp. Aussen Temp. o. S. +5cm Feuchte Auss Luftdruck Regen Sonnenschein Regendauer Solar Windben Empfang
22.09.2019 00:00 16,0 C 13,9 C 12,8 C 60 % 1013,4 hPa 0,0 l/m 0 min 0 min 0 W/m 0,0 km/h (0 Bft) 95,74 %
22.09.2019 00:02 16,0 C 13,9 C 12,8 C 60 % 1013,4 hPa 0,0 l/m 0 min 0 min 0 W/m 6,4 km/h (2 Bft) 97,44 %
22.09.2019 00:04 15,9 C 13,9 C 12,8 C 60 % 1013,4 hPa 0,0 l/m 0 min 0 min 0 W/m 0,0 km/h (0 Bft) 95,74 %
22.09.2019 00:08 15,9 C 13,9 C 12,8 C 61 % 1013,3 hPa 0,0 l/m 0 min 0 min 0 W/m 6,4 km/h (2 Bft) 95,70 %
22.09.2019 00:10 15,8 C 14,4 C 13,3 C 61 % 1013,2 hPa 0,0 l/m 0 min 0 min 0 W/m 6,4 km/h (2 Bft) 91,49 %
22.09.2019 00:12 15,8 C 14,4 C 13,3 C 61 % 1013,2 hPa 0,0 l/m 0 min 0 min 0 W/m 6,4 km/h (2 Bft) 95,74 %
22.09.2019 00:14 15,8 C 14,4 C 13,3 C 61 % 1013,2 hPa 0,0 l/m 0 min 0 min 0 W/m 6,4 km/h (2 Bft) 95,74 %
22.09.2019 00:16 15,7 C 14,4 C 13,9 C 61 % 1013,2 hPa 0,0 l/m 0 min 0 min 0 W/m 6,4 km/h (2 Bft) 95,65 %
22.09.2019 00:18 15,7 C 14,4 C 13,3 C 61 % 1013,2 hPa 0,0 l/m 0 min 0 min 0 W/m 6,4 km/h (2 Bft) 91,49 %
22.09.2019 00:20 15,7 C 14,4 C 13,3 C 61 % 1013,2 hPa 0,0 l/m 0 min 0 min 0 W/m 6,4 km/h (2 Bft) 95,74 %
22.09.2019 00:22 15,6 C 14,4 C 13,9 C 61 % 1013,3 hPa 0,0 l/m 0 min 0 min 0 W/m 6,4 km/h (2 Bft) 93,62 %
22.09.2019 00:24 15,6 C 14,4 C 13,9 C 61 % 1013,3 hPa 0,0 l/m 0 min 0 min 0 W/m 6,4 km/h (2 Bft) 95,74 %
22.09.2019 00:26 15,6 C 14,4 C 13,3 C 61 % 1013,3 hPa 0,0 l/m 0 min 0 min 0 W/m 0,0 km/h (0 Bft) 93,62 %
22.09.2019 00:28 15,6 C 14,4 C 13,3 C 61 % 1013,2 hPa 0,0 l/m 0 min 0 min 0 W/m 0,0 km/h (0 Bft) 93,48 %
22.09.2019 00:30 15,6 C 14,4 C 13,3 C 61 % 1013,2 hPa 0,0 l/m 0 min 0 min 0 W/m 3,2 km/h (1 Bft) 95,74 %
22.09.2019 00:32 15,5 C 14,4 C 13,3 C 61 % 1013,2 hPa 0,0 l/m 0 min 0 min 0 W/m 6,4 km/h (2 Bft) 97,87 %
22.09.2019 00:34 15,5 C 14,4 C 13,3 C 61 % 1013,2 hPa 0,0 l/m 0 min 0 min 0 W/m 6,4 km/h (2 Bft) 97,87 %
22.09.2019 00:36 15,5 C 14,4 C 13,3 C 61 % 1013,1 hPa 0,0 l/m 0 min 0 min 0 W/m 6,4 km/h (2 Bft) 97,87 %
22.09.2019 00:38 15,5 C 14,4 C 13,3 C 61 % 1013,1 hPa 0,0 l/m 0 min 0 min 0 W/m 6,4 km/h (2 Bft) 97,87 %
22.09.2019 00:40 15,4 C 14,4 C 13,3 C 61 % 1013,1 hPa 0,0 l/m 0 min 0 min 0 W/m 6,4 km/h (2 Bft) 97,83 %
22.09.2019 00:42 15,4 C 14,4 C 13,3 C 61 % 1013,1 hPa 0,0 l/m 0 min 0 min 0 W/m 9,7 km/h (2 Bft) 97,87 %
22.09.2019 00:44 15,4 C 14,4 C 13,3 C 61 % 1013,1 hPa 0,0 l/m 0 min 0 min 0 W/m 6,4 km/h (2 Bft) 97,87 %
22.09.2019 00:46 15,4 C 14,4 C 13,9 C 61 % 1013,1 hPa 0,0 l/m 0 min 0 min 0 W/m 9,7 km/h (2 Bft) 97,87 %
22.09.2019 00:48 15,4 C 14,4 C 13,9 C 61 % 1013,0 hPa 0,0 l/m 0 min 0 min 0 W/m 9,7 km/h (2 Bft) 97,87 %
22.09.2019 00:50 15,4 C 15,0 C 13,9 C 61 % 1013,0 hPa 0,0 l/m 0 min 0 min 0 W/m 9,7 km/h (2 Bft) 95,74 %
22.09.2019 00:52 15,4 C 15,0 C 13,9 C 61 % 1012,9 hPa 0,0 l/m 0 min 0 min 0 W/m 9,7 km/h (2 Bft) 93,48 %
22.09.2019 00:54 15,4 C 14,4 C 13,9 C 61 % 1012,9 hPa 0,0 l/m 0 min 0 min 0 W/m 3,2 km/h (1 Bft) 100,00 %
22.09.2019 00:56 15,4 C 14,4 C 13,9 C 61 % 1012,9 hPa 0,0 l/m 0 min 0 min 0 W/m 6,4 km/h (2 Bft) 100,00 %
22.09.2019 00:58 15,4 C 14,4 C 13,9 C 61 % 1012,8 hPa 0,0 l/m 0 min 0 min 0 W/m 9,7 km/h (2 Bft) 100,00 %
22.09.2019 01:00 15,4 C 14,4 C 13,9 C 61 % 1012,8 hPa 0,0 l/m 0 min 0 min 0 W/m 9,7 km/h (2 Bft) 97,87 %
22.09.2019 01:02 15,4 C 14,4 C 13,9 C 61 % 1012,8 hPa 0,0 l/m 0 min 0 min 0 W/m 6,4 km/h (2 Bft) 100,00 %
22.09.2019 01:04 15,4 C 14,4 C 13,3 C 61 % 1012,8 hPa 0,0 l/m 0 min 0 min 0 W/m 0,0 km/h (0 Bft) 100,00 %
22.09.2019 01:06 15,4 C 14,4 C 13,3 C 61 % 1012,8 hPa 0,0 l/m 0 min 0 min 0 W/m 9,7 km/h (2 Bft) 100,00 %
22.09.2019 01:08 15,4 C 13,9 C 13,3 C 61 % 1012,8 hPa 0,0 l/m 0 min 0 min 0 W/m 6,4 km/h (2 Bft) 100,00 %
22.09.2019 01:10 15,4 C 13,9 C 12,8 C 61 % 1012,8 hPa 0,0 l/m 0 min 0 min 0 W/m 3,2 km/h (1 Bft) 97,87 %
22.09.2019 01:12 15,4 C 13,9 C 12,8 C 61 % 1012,8 hPa 0,0 l/m 0 min 0 min 0 W/m 3,2 km/h (1 Bft) 100,00 %
22.09.2019 01:14 15,4 C 13,9 C 12,8 C 61 % 1012,7 hPa 0,0 l/m 0 min 0 min 0 W/m 0,0 km/h (0 Bft) 100,00 %
22.09.2019 01:16 15,4 C 13,9 C 12,2 C 61 % 1012,7 hPa 0,0 l/m 0 min 0 min 0 W/m 3,2 km/h (1 Bft) 100,00 %
22.09.2019 01:18 15,4 C 13,9 C 12,2 C 61 % 1012,7 hPa 0,0 l/m 0 min 0 min 0 W/m 0,0 km/h (0 Bft) 95,74 %
22.09.2019 01:20 15,3 C 13,3 C 12,2 C 62 % 1012,7 hPa 0,0 l/m 0 min 0 min 0 W/m 0,0 km/h (0 Bft) 97,87 %
22.09.2019 01:22 15,3 C 13,3 C 11,7 C 62 % 1012,6 hPa 0,0 l/m 0 min 0 min 0 W/m 0,0 km/h (0 Bft) 97,87 %
22.09.2019 01:24 15,3 C 12,8 C 11,7 C 62 % 1012,6 hPa 0,0 l/m 0 min 0 min 0 W/m 0,0 km/h (0 Bft) 97,87 %
22.09.2019 01:26 15,3 C 13,3 C 11,7 C 62 % 1012,6 hPa 0,0 l/m 0 min 0 min 0 W/m 0,0 km/h (0 Bft) 97,87 %
22.09.2019 01:28 15,2 C 13,3 C 11,7 C 62 % 1012,7 hPa 0,0 l/m 0 min 0 min 0 W/m 3,2 km/h (1 Bft) 97,83 %
22.09.2019 01:30 15,2 C 13,3 C 11,7 C 62 % 1012,7 hPa 0,0 l/m 0 min 0 min 0 W/m 0,0 km/h (0 Bft) 97,87 %
22.09.2019 01:32 15,2 C 13,3 C 11,7 C 62 % 1012,6 hPa 0,0 l/m 0 min 0 min 0 W/m 0,0 km/h (0 Bft) 97,87 %
22.09.2019 01:34 15,1 C 13,3 C 11,7 C 62 % 1012,6 hPa 0,0 l/m 0 min 0 min 0 W/m 0,0 km/h (0 Bft) 95,74 %
22.09.2019 01:36 15,1 C 13,9 C 11,7 C 62 % 1012,6 hPa 0,0 l/m 0 min 0 min 0 W/m 9,7 km/h (2 Bft) 97,87 %
22.09.2019 01:38 15,1 C 13,9 C 12,2 C 62 % 1012,6 hPa 0,0 l/m 0 min 0 min 0 W/m 3,2 km/h (1 Bft) 97,83 %
22.09.2019 01:40 15,0 C 13,9 C 12,2 C 62 % 1012,5 hPa 0,0 l/m 0 min 0 min 0 W/m 3,2 km/h (1 Bft) 97,87 %
22.09.2019 01:42 15,0 C 13,3 C 11,7 C 62 % 1012,5 hPa 0,0 l/m 0 min 0 min 0 W/m 3,2 km/h (1 Bft) 97,87 %
22.09.2019 01:44 14,9 C 13,9 C 12,2 C 62 % 1012,6 hPa 0,0 l/m 0 min 0 min 0 W/m 6,4 km/h (2 Bft) 97,87 %
22.09.2019 01:46 14,9 C 13,3 C 12,2 C 62 % 1012,6 hPa 0,0 l/m 0 min 0 min 0 W/m 3,2 km/h (1 Bft) 97,87 %
22.09.2019 01:48 14,9 C 13,9 C 12,2 C 62 % 1012,5 hPa 0,0 l/m 0 min 0 min 0 W/m 6,4 km/h (2 Bft) 97,87 %
22.09.2019 01:50 14,8 C 13,9 C 12,2 C 62 % 1012,5 hPa 0,0 l/m 0 min 0 min 0 W/m 3,2 km/h (1 Bft) 95,65 %
22.09.2019 01:52 14,8 C 13,9 C 12,2 C 63 % 1012,5 hPa 0,0 l/m 0 min 0 min 0 W/m 6,4 km/h (2 Bft) 95,74 %
22.09.2019 01:54 14,8 C 13,9 C 12,8 C 63 % 1012,6 hPa 0,0 l/m 0 min 0 min 0 W/m 6,4 km/h (2 Bft) 97,87 %
22.09.2019 01:56 14,8 C 13,9 C 12,8 C 63 % 1012,6 hPa 0,0 l/m 0 min 0 min 0 W/m 6,4 km/h (2 Bft) 97,87 %
22.09.2019 01:58 14,7 C 13,9 C 12,8 C 63 % 1012,5 hPa 0,0 l/m 0 min 0 min 0 W/m 6,4 km/h (2 Bft) 97,87 %
22.09.2019 02:00 14,7 C 13,9 C 12,8 C 63 % 1012,5 hPa 0,0 l/m 0 min 0 min 0 W/m 9,7 km/h (2 Bft) 95,74 %
22.09.2019 02:02 14,7 C 13,9 C 13,3 C 63 % 1012,4 hPa 0,0 l/m 0 min 0 min 0 W/m 9,7 km/h (2 Bft) 95,65 %
22.09.2019 02:04 14,7 C 13,9 C 13,3 C 63 % 1012,6 hPa 0,0 l/m 0 min 0 min 0 W/m 6,4 km/h (2 Bft) 95,74 %
22.09.2019 02:06 14,7 C 13,9 C 13,3 C 63 % 1012,5 hPa 0,0 l/m 0 min 0 min 0 W/m 9,7 km/h (2 Bft) 95,74 %
22.09.2019 02:08 14,7 C 13,9 C 13,3 C 63 % 1012,5 hPa 0,0 l/m 0 min 0 min 0 W/m 6,4 km/h (2 Bft) 95,74 %
22.09.2019 02:10 14,7 C 13,9 C 13,3 C 63 % 1012,6 hPa 0,0 l/m 0 min 0 min 0 W/m 6,4 km/h (2 Bft) 95,74 %
22.09.2019 02:12 14,7 C 13,9 C 13,3 C 63 % 1012,5 hPa 0,0 l/m 0 min 0 min 0 W/m 16,1 km/h (3 Bft) 97,87 %
22.09.2019 02:14 14,6 C 13,9 C 13,3 C 63 % 1012,5 hPa 0,0 l/m 0 min 0 min 0 W/m 6,4 km/h (2 Bft) 97,83 %
22.09.2019 02:16 14,6 C 13,9 C 13,3 C 63 % 1012,5 hPa 0,0 l/m 0 min 0 min 0 W/m 6,4 km/h (2 Bft) 97,87 %
22.09.2019 02:18 14,6 C 13,3 C 12,8 C 63 % 1012,4 hPa 0,0 l/m 0 min 0 min 0 W/m 3,2 km/h (1 Bft) 93,62 %
22.09.2019 02:20 14,6 C 13,9 C 13,3 C 63 % 1012,4 hPa 0,0 l/m 0 min 0 min 0 W/m 16,1 km/h (3 Bft) 97,87 %
22.09.2019 02:22 14,6 C 13,9 C 13,3 C 63 % 1012,4 hPa 0,0 l/m 0 min 0 min 0 W/m 19,3 km/h (3 Bft) 95,74 %
22.09.2019 02:24 14,6 C 13,9 C 13,3 C 63 % 1012,5 hPa 0,0 l/m 0 min 0 min 0 W/m 9,7 km/h (2 Bft) 97,87 %
22.09.2019 02:26 14,6 C 13,9 C 13,3 C 63 % 1012,5 hPa 0,0 l/m 0 min 0 min 0 W/m 16,1 km/h (3 Bft) 95,65 %
22.09.2019 02:28 14,6 C 13,9 C 13,3 C 63 % 1012,5 hPa 0,0 l/m 0 min 0 min 0 W/m 9,7 km/h (2 Bft) 97,87 %
22.09.2019 02:30 14,6 C 13,3 C 13,3 C 63 % 1012,5 hPa 0,0 l/m 0 min 0 min 0 W/m 9,7 km/h (2 Bft) 97,87 %
22.09.2019 02:32 14,6 C 13,3 C 13,3 C 63 % 1012,5 hPa 0,0 l/m 0 min 0 min 0 W/m 16,1 km/h (3 Bft) 97,87 %
22.09.2019 02:34 14,6 C 13,3 C 13,3 C 63 % 1012,5 hPa 0,0 l/m 0 min 0 min 0 W/m 6,4 km/h (2 Bft) 97,87 %
22.09.2019 02:36 14,6 C 13,3 C 12,8 C 63 % 1012,4 hPa 0,0 l/m 0 min 0 min 0 W/m 9,7 km/h (2 Bft) 97,87 %
22.09.2019 02:38 14,6 C 13,3 C 12,8 C 63 % 1012,4 hPa 0,0 l/m 0 min 0 min 0 W/m 9,7 km/h (2 Bft) 97,83 %
22.09.2019 02:40 14,6 C 13,9 C 13,3 C 63 % 1012,4 hPa 0,0 l/m 0 min 0 min 0 W/m 16,1 km/h (3 Bft) 97,87 %
22.09.2019 02:42 14,5 C 13,3 C 13,3 C 64 % 1012,4 hPa 0,0 l/m 0 min 0 min 0 W/m 9,7 km/h (2 Bft) 95,74 %
22.09.2019 02:44 14,5 C 13,3 C 13,3 C 64 % 1012,4 hPa 0,0 l/m 0 min 0 min 0 W/m 9,7 km/h (2 Bft) 97,87 %
22.09.2019 02:46 14,5 C 13,3 C 13,3 C 64 % 1012,3 hPa 0,0 l/m 0 min 0 min 0 W/m 16,1 km/h (3 Bft) 97,87 %
22.09.2019 02:48 14,5 C 13,9 C 13,3 C 64 % 1012,3 hPa 0,0 l/m 0 min 0 min 0 W/m 12,9 km/h (3 Bft) 97,83 %
22.09.2019 02:50 14,5 C 13,9 C 13,3 C 64 % 1012,4 hPa 0,0 l/m 0 min 0 min 0 W/m 16,1 km/h (3 Bft) 97,87 %
22.09.2019 02:52 14,5 C 13,3 C 13,3 C 64 % 1012,3 hPa 0,0 l/m 0 min 0 min 0 W/m 9,7 km/h (2 Bft) 97,87 %
22.09.2019 02:54 14,5 C 13,9 C 13,3 C 64 % 1012,2 hPa 0,0 l/m 0 min 0 min 0 W/m 12,9 km/h (3 Bft) 97,87 %
22.09.2019 02:56 14,4 C 13,3 C 13,3 C 64 % 1012,2 hPa 0,0 l/m 0 min 0 min 0 W/m 9,7 km/h (2 Bft) 97,87 %
22.09.2019 02:58 14,5 C 13,3 C 13,3 C 64 % 1012,2 hPa 0,0 l/m 0 min 0 min 0 W/m 6,4 km/h (2 Bft) 97,87 %
22.09.2019 03:00 14,4 C 13,3 C 13,3 C 64 % 1012,3 hPa 0,0 l/m 0 min 0 min 0 W/m 12,9 km/h (3 Bft) 97,83 %
22.09.2019 03:02 14,4 C 13,3 C 12,8 C 64 % 1012,2 hPa 0,0 l/m 0 min 0 min 0 W/m 12,9 km/h (3 Bft) 100,00 %
22.09.2019 03:04 14,4 C 13,3 C 12,8 C 64 % 1012,2 hPa 0,0 l/m 0 min 0 min 0 W/m 9,7 km/h (2 Bft) 97,87 %
22.09.2019 03:06 14,4 C 13,3 C 13,3 C 64 % 1012,2 hPa 0,0 l/m 0 min 0 min 0 W/m 16,1 km/h (3 Bft) 97,87 %
22.09.2019 03:08 14,4 C 13,3 C 12,8 C 64 % 1012,2 hPa 0,0 l/m 0 min 0 min 0 W/m 6,4 km/h (2 Bft) 97,87 %
22.09.2019 03:10 14,4 C 13,3 C 12,8 C 64 % 1012,2 hPa 0,0 l/m 0 min 0 min 0 W/m 16,1 km/h (3 Bft) 100,00 %
22.09.2019 03:12 14,4 C 13,3 C 12,8 C 64 % 1012,2 hPa 0,0 l/m 0 min 0 min 0 W/m 9,7 km/h (2 Bft) 97,83 %
22.09.2019 03:14 14,4 C 13,3 C 12,8 C 64 % 1012,1 hPa 0,0 l/m 0 min 0 min 0 W/m 9,7 km/h (2 Bft) 100,00 %
22.09.2019 03:16 14,4 C 13,3 C 12,8 C 64 % 1012,1 hPa 0,0 l/m 0 min 0 min 0 W/m 9,7 km/h (2 Bft) 97,87 %
22.09.2019 03:18 14,3 C 13,3 C 12,8 C 64 % 1012,1 hPa 0,0 l/m 0 min 0 min 0 W/m 9,7 km/h (2 Bft) 100,00 %
22.09.2019 03:20 14,3 C 13,3 C 12,8 C 64 % 1012,1 hPa 0,0 l/m 0 min 0 min 0 W/m 9,7 km/h (2 Bft) 100,00 %
22.09.2019 03:22 14,3 C 13,3 C 12,8 C 64 % 1012,0 hPa 0,0 l/m 0 min 0 min 0 W/m 6,4 km/h (2 Bft) 100,00 %
22.09.2019 03:24 14,3 C 13,3 C 12,8 C 64 % 1012,0 hPa 0,0 l/m 0 min 0 min 0 W/m 6,4 km/h (2 Bft) 100,00 %
22.09.2019 03:26 14,3 C 13,3 C 12,8 C 64 % 1012,0 hPa 0,0 l/m 0 min 0 min 0 W/m 9,7 km/h (2 Bft) 100,00 %
22.09.2019 03:28 14,2 C 13,3 C 12,8 C 64 % 1012,0 hPa 0,0 l/m 0 min 0 min 0 W/m 6,4 km/h (2 Bft) 100,00 %
22.09.2019 03:30 14,2 C 13,3 C 12,8 C 64 % 1011,9 hPa 0,0 l/m 0 min 0 min 0 W/m 9,7 km/h (2 Bft) 100,00 %
22.09.2019 03:32 14,2 C 13,3 C 12,8 C 64 % 1011,9 hPa 0,0 l/m 0 min 0 min 0 W/m 9,7 km/h (2 Bft) 100,00 %
22.09.2019 03:34 14,2 C 13,3 C 12,8 C 64 % 1011,9 hPa 0,0 l/m 0 min 0 min 0 W/m 12,9 km/h (3 Bft) 100,00 %
22.09.2019 03:36 14,2 C 13,3 C 12,8 C 64 % 1011,9 hPa 0,0 l/m 0 min 0 min 0 W/m 9,7 km/h (2 Bft) 100,00 %
22.09.2019 03:38 14,2 C 13,3 C 12,8 C 64 % 1011,9 hPa 0,0 l/m 0 min 0 min 0 W/m 6,4 km/h (2 Bft) 97,87 %
22.09.2019 03:40 14,2 C 13,3 C 12,8 C 65 % 1011,9 hPa 0,0 l/m 0 min 0 min 0 W/m 12,9 km/h (3 Bft) 100,00 %
22.09.2019 03:42 14,2 C 13,3 C 12,8 C 65 % 1011,9 hPa 0,0 l/m 0 min 0 min 0 W/m 6,4 km/h (2 Bft) 100,00 %
22.09.2019 03:44 14,2 C 13,3 C 12,8 C 65 % 1011,8 hPa 0,0 l/m 0 min 0 min 0 W/m 6,4 km/h (2 Bft) 100,00 %
22.09.2019 03:46 14,2 C 13,3 C 12,8 C 65 % 1011,8 hPa 0,0 l/m 0 min 0 min 0 W/m 9,7 km/h (2 Bft) 97,87 %
22.09.2019 03:48 14,2 C 13,3 C 12,8 C 65 % 1011,8 hPa 0,0 l/m 0 min 0 min 0 W/m 9,7 km/h (2 Bft) 97,83 %
22.09.2019 03:50 14,2 C 13,3 C 12,8 C 65 % 1011,8 hPa 0,0 l/m 0 min 0 min 0 W/m 12,9 km/h (3 Bft) 97,87 %
22.09.2019 03:52 14,2 C 13,3 C 12,8 C 65 % 1011,8 hPa 0,0 l/m 0 min 0 min 0 W/m 9,7 km/h (2 Bft) 95,74 %
22.09.2019 03:54 14,2 C 13,3 C 12,8 C 65 % 1011,7 hPa 0,0 l/m 0 min 0 min 0 W/m 9,7 km/h (2 Bft) 97,87 %
22.09.2019 03:56 14,2 C 13,3 C 12,8 C 65 % 1011,8 hPa 0,0 l/m 0 min 0 min 0 W/m 9,7 km/h (2 Bft) 97,87 %
22.09.2019 03:58 14,2 C 13,3 C 12,8 C 65 % 1011,7 hPa 0,0 l/m 0 min 0 min 0 W/m 19,3 km/h (3 Bft) 97,83 %
22.09.2019 04:00 14,2 C 13,3 C 12,8 C 65 % 1011,5 hPa 0,0 l/m 0 min 0 min 0 W/m 6,4 km/h (2 Bft) 97,87 %
22.09.2019 04:02 14,2 C 13,3 C 12,8 C 65 % 1011,6 hPa 0,0 l/m 0 min 0 min 0 W/m 9,7 km/h (2 Bft) 100,00 %
22.09.2019 04:04 14,2 C 13,3 C 12,8 C 65 % 1011,5 hPa 0,0 l/m 0 min 0 min 0 W/m 16,1 km/h (3 Bft) 95,74 %
22.09.2019 04:06 14,2 C 13,3 C 12,8 C 65 % 1011,6 hPa 0,0 l/m 0 min 0 min 0 W/m 9,7 km/h (2 Bft) 97,87 %
22.09.2019 04:08 14,2 C 13,3 C 12,8 C 65 % 1011,6 hPa 0,0 l/m 0 min 0 min 0 W/m 16,1 km/h (3 Bft) 95,74 %
22.09.2019 04:10 14,2 C 13,3 C 12,8 C 65 % 1011,5 hPa 0,0 l/m 0 min 0 min 0 W/m 9,7 km/h (2 Bft) 97,83 %
22.09.2019 04:12 14,2 C 13,3 C 12,8 C 65 % 1011,5 hPa 0,0 l/m 0 min 0 min 0 W/m 6,4 km/h (2 Bft) 97,87 %
22.09.2019 04:14 14,2 C 13,3 C 12,8 C 65 % 1011,5 hPa 0,0 l/m 0 min 0 min 0 W/m 9,7 km/h (2 Bft) 97,87 %
22.09.2019 04:16 14,2 C 13,3 C 12,8 C 65 % 1011,5 hPa 0,0 l/m 0 min 0 min 0 W/m 12,9 km/h (3 Bft) 97,87 %
22.09.2019 04:18 14,2 C 13,3 C 12,8 C 65 % 1011,4 hPa 0,0 l/m 0 min 0 min 0 W/m 9,7 km/h (2 Bft) 95,74 %
22.09.2019 04:20 14,2 C 13,3 C 12,8 C 65 % 1011,5 hPa 0,0 l/m 0 min 0 min 0 W/m 9,7 km/h (2 Bft) 93,62 %
22.09.2019 04:22 14,2 C 13,3 C 12,8 C 65 % 1011,4 hPa 0,0 l/m 0 min 0 min 0 W/m 6,4 km/h (2 Bft) 93,48 %
22.09.2019 04:24 14,2 C 13,3 C 12,8 C 65 % 1011,4 hPa 0,0 l/m 0 min 0 min 0 W/m 9,7 km/h (2 Bft) 93,62 %
22.09.2019 04:26 14,2 C 13,3 C 12,8 C 65 % 1011,4 hPa 0,0 l/m 0 min 0 min 0 W/m 6,4 km/h (2 Bft) 95,74 %
22.09.2019 04:28 14,2 C 13,3 C 12,8 C 65 % 1011,4 hPa 0,0 l/m 0 min 0 min 0 W/m 6,4 km/h (2 Bft) 91,49 %
22.09.2019 04:30 14,2 C 13,3 C 12,8 C 65 % 1011,4 hPa 0,0 l/m 0 min 0 min 0 W/m 12,9 km/h (3 Bft) 95,74 %
22.09.2019 04:32 14,2 C 13,3 C 12,8 C 65 % 1011,4 hPa 0,0 l/m 0 min 0 min 0 W/m 9,7 km/h (2 Bft) 95,74 %
22.09.2019 04:34 14,2 C 13,3 C 12,8 C 65 % 1011,3 hPa 0,0 l/m 0 min 0 min 0 W/m 16,1 km/h (3 Bft) 93,48 %
22.09.2019 04:36 14,2 C 13,3 C 12,8 C 65 % 1011,3 hPa 0,0 l/m 0 min 0 min 0 W/m 16,1 km/h (3 Bft) 95,74 %
22.09.2019 04:38 14,2 C 13,3 C 12,8 C 65 % 1011,3 hPa 0,0 l/m 0 min 0 min 0 W/m 16,1 km/h (3 Bft) 95,74 %
22.09.2019 04:40 14,2 C 13,3 C 13,3 C 65 % 1011,4 hPa 0,0 l/m 0 min 0 min 0 W/m 16,1 km/h (3 Bft) 93,62 %
22.09.2019 04:42 14,2 C 13,3 C 13,3 C 65 % 1011,3 hPa 0,0 l/m 0 min 0 min 0 W/m 16,1 km/h (3 Bft) 93,62 %
22.09.2019 04:44 14,2 C 13,3 C 13,3 C 65 % 1011,3 hPa 0,0 l/m 0 min 0 min 0 W/m 16,1 km/h (3 Bft) 93,62 %
22.09.2019 04:46 14,2 C 13,3 C 13,3 C 65 % 1011,2 hPa 0,0 l/m 0 min 0 min 0 W/m 16,1 km/h (3 Bft) 91,30 %
22.09.2019 04:48 14,2 C 13,3 C 13,3 C 65 % 1011,2 hPa 0,0 l/m 0 min 0 min 0 W/m 12,9 km/h (3 Bft) 93,62 %
22.09.2019 04:50 14,2 C 13,3 C 13,3 C 65 % 1011,2 hPa 0,0 l/m 0 min 0 min 0 W/m 12,9 km/h (3 Bft) 95,74 %
22.09.2019 04:52 14,2 C 13,3 C 13,3 C 65 % 1011,2 hPa 0,0 l/m 0 min 0 min 0 W/m 19,3 km/h (3 Bft) 95,74 %
22.09.2019 04:54 14,2 C 13,3 C 13,3 C 65 % 1011,2 hPa 0,0 l/m 0 min 0 min 0 W/m 12,9 km/h (3 Bft) 93,62 %
22.09.2019 04:56 14,2 C 13,3 C 12,8 C 65 % 1011,3 hPa 0,0 l/m 0 min 0 min 0 W/m 9,7 km/h (2 Bft) 93,62 %
22.09.2019 04:58 14,2 C 13,3 C 12,8 C 65 % 1011,2 hPa 0,0 l/m 0 min 0 min 0 W/m 12,9 km/h (3 Bft) 95,65 %
22.09.2019 05:00 14,2 C 13,3 C 12,8 C 65 % 1011,2 hPa 0,0 l/m 0 min 0 min 0 W/m 9,7 km/h (2 Bft) 95,74 %
22.09.2019 05:02 14,2 C 13,3 C 12,8 C 65 % 1011,2 hPa 0,0 l/m 0 min 0 min 0 W/m 9,7 km/h (2 Bft) 93,62 %
22.09.2019 05:04 14,2 C 13,3 C 12,8 C 65 % 1011,2 hPa 0,0 l/m 0 min 0 min 0 W/m 9,7 km/h (2 Bft) 93,62 %
22.09.2019 05:06 14,2 C 13,3 C 12,8 C 65 % 1011,2 hPa 0,0 l/m 0 min 0 min 0 W/m 9,7 km/h (2 Bft) 97,87 %
22.09.2019 05:08 14,2 C 13,3 C 12,8 C 65 % 1011,2 hPa 0,0 l/m 0 min 0 min 0 W/m 9,7 km/h (2 Bft) 95,74 %
22.09.2019 05:10 14,2 C 13,3 C 12,8 C 65 % 1011,1 hPa 0,0 l/m 0 min 0 min 0 W/m 9,7 km/h (2 Bft) 97,83 %
22.09.2019 05:12 14,2 C 13,3 C 13,3 C 65 % 1011,1 hPa 0,0 l/m 0 min 0 min 0 W/m 6,4 km/h (2 Bft) 97,87 %
22.09.2019 05:14 14,2 C 13,9 C 13,3 C 65 % 1011,1 hPa 0,0 l/m 0 min 0 min 0 W/m 22,5 km/h (4 Bft) 97,87 %
22.09.2019 05:16 14,3 C 13,9 C 13,3 C 65 % 1011,1 hPa 0,0 l/m 0 min 0 min 0 W/m 12,9 km/h (3 Bft) 97,87 %
22.09.2019 05:18 14,3 C 13,9 C 13,3 C 65 % 1011,1 hPa 0,0 l/m 0 min 0 min 0 W/m 22,5 km/h (4 Bft) 93,62 %
22.09.2019 05:20 14,3 C 13,9 C 13,3 C 65 % 1011,0 hPa 0,0 l/m 0 min 0 min 0 W/m 9,7 km/h (2 Bft) 97,83 %
22.09.2019 05:22 14,3 C 13,9 C 13,3 C 65 % 1011,0 hPa 0,0 l/m 0 min 0 min 0 W/m 12,9 km/h (3 Bft) 97,87 %
22.09.2019 05:24 14,4 C 13,9 C 13,3 C 65 % 1011,0 hPa 0,0 l/m 0 min 0 min 0 W/m 16,1 km/h (3 Bft) 97,87 %
22.09.2019 05:26 14,4 C 13,9 C 13,3 C 65 % 1011,0 hPa 0,0 l/m 0 min 0 min 0 W/m 9,7 km/h (2 Bft) 97,87 %
22.09.2019 05:28 14,4 C 13,9 C 13,3 C 65 % 1011,0 hPa 0,0 l/m 0 min 0 min 0 W/m 12,9 km/h (3 Bft) 95,74 %
22.09.2019 05:30 14,4 C 13,9 C 13,3 C 65 % 1011,1 hPa 0,0 l/m 0 min 0 min 0 W/m 16,1 km/h (3 Bft) 97,87 %
22.09.2019 05:32 14,4 C 13,9 C 13,3 C 65 % 1011,0 hPa 0,0 l/m 0 min 0 min 0 W/m 9,7 km/h (2 Bft) 96,23 %
22.09.2019 05:34 14,5 C 13,9 C 13,3 C 66 % 1011,0 hPa 0,0 l/m 0 min 0 min 0 W/m 9,7 km/h (2 Bft) 97,83 %
22.09.2019 05:36 14,5 C 13,3 C 13,3 C 66 % 1011,0 hPa 0,0 l/m 0 min 0 min 0 W/m 6,4 km/h (2 Bft) 97,87 %
22.09.2019 05:38 14,5 C 13,3 C 13,3 C 66 % 1011,0 hPa 0,0 l/m 0 min 0 min 0 W/m 12,9 km/h (3 Bft) 97,87 %
22.09.2019 05:40 14,5 C 13,3 C 12,8 C 66 % 1010,9 hPa 0,0 l/m 0 min 0 min 0 W/m 9,7 km/h (2 Bft) 100,00 %
22.09.2019 05:42 14,5 C 13,3 C 12,8 C 66 % 1011,0 hPa 0,0 l/m 0 min 0 min 0 W/m 9,7 km/h (2 Bft) 100,00 %
22.09.2019 05:44 14,4 C 13,3 C 12,8 C 66 % 1010,9 hPa 0,0 l/m 0 min 0 min 0 W/m 9,7 km/h (2 Bft) 100,00 %
22.09.2019 05:46 14,4 C 13,3 C 12,8 C 66 % 1010,9 hPa 0,0 l/m 0 min 0 min 0 W/m 9,7 km/h (2 Bft) 100,00 %
22.09.2019 05:48 14,4 C 13,3 C 12,8 C 66 % 1010,9 hPa 0,0 l/m 0 min 0 min 0 W/m 6,4 km/h (2 Bft) 97,87 %
22.09.2019 05:50 14,4 C 13,3 C 12,8 C 66 % 1010,9 hPa 0,0 l/m 0 min 0 min 0 W/m 9,7 km/h (2 Bft) 100,00 %
22.09.2019 05:52 14,4 C 13,3 C 12,8 C 66 % 1010,9 hPa 0,0 l/m 0 min 0 min 0 W/m 16,1 km/h (3 Bft) 100,00 %
22.09.2019 05:54 14,4 C 13,3 C 12,8 C 66 % 1010,8 hPa 0,0 l/m 0 min 0 min 0 W/m 9,7 km/h (2 Bft) 97,87 %
22.09.2019 05:56 14,4 C 13,3 C 12,8 C 66 % 1010,7 hPa 0,0 l/m 0 min 0 min 0 W/m 9,7 km/h (2 Bft) 100,00 %
22.09.2019 05:58 14,3 C 13,3 C 12,8 C 66 % 1010,7 hPa 0,0 l/m 0 min 0 min 0 W/m 19,3 km/h (3 Bft) 97,83 %
22.09.2019 06:00 14,3 C 13,3 C 12,8 C 66 % 1010,7 hPa 0,0 l/m 0 min 0 min 0 W/m 16,1 km/h (3 Bft) 100,00 %
22.09.2019 06:02 14,3 C 13,3 C 12,8 C 67 % 1010,7 hPa 0,0 l/m 0 min 0 min 0 W/m 12,9 km/h (3 Bft) 97,87 %
22.09.2019 06:04 14,3 C 13,3 C 12,8 C 67 % 1010,8 hPa 0,0 l/m 0 min 0 min 0 W/m 6,4 km/h (2 Bft) 100,00 %
22.09.2019 06:08 14,3 C 13,3 C 12,8 C 67 % 1010,7 hPa 0,0 l/m 0 min 0 min 0 W/m 19,3 km/h (3 Bft) 100,00 %
22.09.2019 06:10 14,2 C 13,3 C 12,8 C 67 % 1010,7 hPa 0,0 l/m 0 min 0 min 0 W/m 12,9 km/h (3 Bft) 100,00 %
22.09.2019 06:12 14,2 C 13,3 C 12,8 C 67 % 1010,6 hPa 0,0 l/m 0 min 0 min 0 W/m 16,1 km/h (3 Bft) 100,00 %
22.09.2019 06:14 14,2 C 13,3 C 12,8 C 67 % 1010,6 hPa 0,0 l/m 0 min 0 min 0 W/m 22,5 km/h (4 Bft) 100,00 %
22.09.2019 06:16 14,2 C 13,3 C 12,8 C 67 % 1010,7 hPa 0,0 l/m 0 min 0 min 0 W/m 9,7 km/h (2 Bft) 100,00 %
22.09.2019 06:18 14,2 C 13,3 C 12,8 C 67 % 1010,6 hPa 0,0 l/m 0 min 0 min 0 W/m 16,1 km/h (3 Bft) 100,00 %
22.09.2019 06:20 14,2 C 13,3 C 12,8 C 67 % 1010,6 hPa 0,0 l/m 0 min 0 min 0 W/m 12,9 km/h (3 Bft) 100,00 %
22.09.2019 06:22 14,2 C 13,3 C 12,8 C 67 % 1010,5 hPa 0,0 l/m 0 min 0 min 0 W/m 16,1 km/h (3 Bft) 100,00 %
22.09.2019 06:24 14,2 C 13,3 C 12,8 C 67 % 1010,6 hPa 0,0 l/m 0 min 0 min 0 W/m 16,1 km/h (3 Bft) 100,00 %
22.09.2019 06:26 14,2 C 13,3 C 12,8 C 68 % 1010,5 hPa 0,0 l/m 0 min 0 min 0 W/m 9,7 km/h (2 Bft) 100,00 %
22.09.2019 06:28 14,2 C 13,3 C 12,8 C 68 % 1010,5 hPa 0,0 l/m 0 min 0 min 0 W/m 9,7 km/h (2 Bft) 97,87 %
22.09.2019 06:30 14,2 C 13,3 C 12,8 C 68 % 1010,5 hPa 0,0 l/m 0 min 0 min 0 W/m 9,7 km/h (2 Bft) 100,00 %
22.09.2019 06:32 14,2 C 13,3 C 12,8 C 68 % 1010,6 hPa 0,0 l/m 0 min 0 min 0 W/m 6,4 km/h (2 Bft) 100,00 %
22.09.2019 06:34 14,2 C 13,3 C 12,8 C 68 % 1010,6 hPa 0,0 l/m 0 min 0 min 0 W/m 16,1 km/h (3 Bft) 100,00 %
22.09.2019 06:36 14,2 C 13,3 C 12,8 C 68 % 1010,6 hPa 0,0 l/m 0 min 0 min 0 W/m 6,4 km/h (2 Bft) 100,00 %
22.09.2019 06:38 14,2 C 13,3 C 12,8 C 68 % 1010,5 hPa 0,0 l/m 0 min 0 min 0 W/m 9,7 km/h (2 Bft) 100,00 %
22.09.2019 06:40 14,2 C 13,3 C 12,8 C 68 % 1010,5 hPa 0,0 l/m 0 min 0 min 0 W/m 9,7 km/h (2 Bft) 100,00 %
22.09.2019 06:42 14,2 C 13,3 C 12,8 C 68 % 1010,6 hPa 0,0 l/m 0 min 0 min 0 W/m 12,9 km/h (3 Bft) 97,87 %
22.09.2019 06:44 14,2 C 13,3 C 12,8 C 68 % 1010,6 hPa 0,0 l/m 0 min 0 min 0 W/m 12,9 km/h (3 Bft) 100,00 %
22.09.2019 06:46 14,2 C 13,3 C 12,8 C 68 % 1010,6 hPa 0,0 l/m 0 min 0 min 0 W/m 9,7 km/h (2 Bft) 97,87 %
22.09.2019 06:48 14,2 C 13,3 C 12,8 C 68 % 1010,6 hPa 0,0 l/m 0 min 0 min 0 W/m 9,7 km/h (2 Bft) 97,87 %
22.09.2019 06:50 14,2 C 13,3 C 12,8 C 68 % 1010,6 hPa 0,0 l/m 0 min 0 min 0 W/m 16,1 km/h (3 Bft) 95,74 %
22.09.2019 06:52 14,2 C 13,3 C 12,8 C 68 % 1010,6 hPa 0,0 l/m 0 min 0 min 0 W/m 9,7 km/h (2 Bft) 100,00 %
22.09.2019 06:54 14,2 C 13,3 C 12,8 C 68 % 1010,6 hPa 0,0 l/m 0 min 0 min 0 W/m 16,1 km/h (3 Bft) 97,87 %
22.09.2019 06:56 14,2 C 13,3 C 12,8 C 68 % 1010,5 hPa 0,0 l/m 0 min 0 min 0 W/m 9,7 km/h (2 Bft) 100,00 %
22.09.2019 06:58 14,2 C 13,3 C 12,8 C 68 % 1010,5 hPa 0,0 l/m 0 min 0 min 0 W/m 16,1 km/h (3 Bft) 100,00 %
22.09.2019 07:00 14,2 C 13,3 C 12,8 C 68 % 1010,4 hPa 0,0 l/m 0 min 0 min 0 W/m 16,1 km/h (3 Bft) 100,00 %
22.09.2019 07:02 14,2 C 13,3 C 12,8 C 68 % 1010,5 hPa 0,0 l/m 0 min 0 min 0 W/m 9,7 km/h (2 Bft) 100,00 %
22.09.2019 07:04 14,2 C 13,3 C 12,8 C 68 % 1010,5 hPa 0,0 l/m 0 min 0 min 0 W/m 16,1 km/h (3 Bft) 97,87 %
22.09.2019 07:06 14,2 C 13,3 C 12,8 C 68 % 1010,5 hPa 0,0 l/m 0 min 0 min 0 W/m 9,7 km/h (2 Bft) 97,87 %
22.09.2019 07:08 14,2 C 13,3 C 12,8 C 68 % 1010,4 hPa 0,0 l/m 0 min 0 min 0 W/m 9,7 km/h (2 Bft) 100,00 %
22.09.2019 07:10 14,2 C 13,3 C 12,8 C 68 % 1010,4 hPa 0,0 l/m 0 min 0 min 0 W/m 16,1 km/h (3 Bft) 97,87 %
22.09.2019 07:12 14,2 C 13,3 C 12,8 C 69 % 1010,4 hPa 0,0 l/m 0 min 0 min 0 W/m 16,1 km/h (3 Bft) 97,87 %
22.09.2019 07:14 14,2 C 13,3 C 12,8 C 69 % 1010,4 hPa 0,0 l/m 0 min 0 min 0 W/m 9,7 km/h (2 Bft) 95,74 %
22.09.2019 07:16 14,2 C 13,9 C 13,3 C 69 % 1010,5 hPa 0,0 l/m 0 min 0 min 0 W/m 22,5 km/h (4 Bft) 95,74 %
22.09.2019 07:18 14,2 C 13,9 C 13,3 C 69 % 1010,4 hPa 0,0 l/m 0 min 0 min 0 W/m 16,1 km/h (3 Bft) 95,74 %
22.09.2019 07:20 14,2 C 13,9 C 13,3 C 69 % 1010,4 hPa 0,0 l/m 0 min 0 min 0 W/m 12,9 km/h (3 Bft) 97,83 %
22.09.2019 07:22 14,2 C 13,9 C 13,3 C 69 % 1010,4 hPa 0,0 l/m 0 min 0 min 3 W/m 19,3 km/h (3 Bft) 97,87 %
22.09.2019 07:24 14,2 C 13,9 C 13,3 C 69 % 1010,3 hPa 0,0 l/m 0 min 0 min 5 W/m 9,7 km/h (2 Bft) 97,87 %
22.09.2019 07:26 14,2 C 13,9 C 13,3 C 69 % 1010,3 hPa 0,0 l/m 0 min 0 min 6 W/m 16,1 km/h (3 Bft) 95,74 %
22.09.2019 07:28 14,2 C 13,9 C 13,3 C 69 % 1010,3 hPa 0,0 l/m 0 min 0 min 7 W/m 16,1 km/h (3 Bft) 95,74 %
22.09.2019 07:30 14,2 C 13,9 C 13,3 C 68 % 1010,3 hPa 0,0 l/m 0 min 0 min 8 W/m 16,1 km/h (3 Bft) 95,74 %
22.09.2019 07:32 14,2 C 13,9 C 13,3 C 68 % 1010,3 hPa 0,0 l/m 0 min 0 min 9 W/m 12,9 km/h (3 Bft) 97,83 %
22.09.2019 07:34 14,3 C 13,9 C 13,3 C 68 % 1010,2 hPa 0,0 l/m 0 min 0 min 9 W/m 16,1 km/h (3 Bft) 91,49 %
22.09.2019 07:36 14,3 C 13,9 C 13,3 C 68 % 1010,2 hPa 0,0 l/m 0 min 0 min 11 W/m 16,1 km/h (3 Bft) 91,49 %
22.09.2019 07:38 14,3 C 13,9 C 13,3 C 68 % 1010,2 hPa 0,0 l/m 0 min 0 min 11 W/m 12,9 km/h (3 Bft) 89,36 %
22.09.2019 07:40 14,4 C 13,9 C 13,3 C 68 % 1010,2 hPa 0,0 l/m 0 min 0 min 12 W/m 16,1 km/h (3 Bft) 93,62 %
22.09.2019 07:42 14,4 C 13,9 C 13,3 C 68 % 1010,2 hPa 0,0 l/m 0 min 0 min 13 W/m 6,4 km/h (2 Bft) 93,48 %
22.09.2019 07:44 14,4 C 13,9 C 13,3 C 68 % 1010,3 hPa 0,0 l/m 0 min 0 min 14 W/m 9,7 km/h (2 Bft) 93,62 %
22.09.2019 07:46 14,4 C 13,9 C 13,3 C 68 % 1010,3 hPa 0,0 l/m 0 min 0 min 14 W/m 9,7 km/h (2 Bft) 93,62 %
22.09.2019 07:48 14,5 C 14,4 C 13,9 C 68 % 1010,2 hPa 0,0 l/m 0 min 0 min 16 W/m 16,1 km/h (3 Bft) 93,62 %
22.09.2019 07:50 14,5 C 14,4 C 13,9 C 68 % 1010,2 hPa 0,0 l/m 0 min 0 min 17 W/m 12,9 km/h (3 Bft) 91,49 %
22.09.2019 07:52 14,6 C 14,4 C 13,9 C 68 % 1010,2 hPa 0,0 l/m 0 min 0 min 18 W/m 6,4 km/h (2 Bft) 91,49 %
22.09.2019 07:54 14,6 C 14,4 C 13,9 C 68 % 1010,2 hPa 0,0 l/m 0 min 0 min 19 W/m 19,3 km/h (3 Bft) 93,48 %
22.09.2019 07:56 14,6 C 14,4 C 13,9 C 68 % 1010,2 hPa 0,0 l/m 0 min 0 min 19 W/m 6,4 km/h (2 Bft) 95,74 %
22.09.2019 07:58 14,6 C 14,4 C 13,9 C 68 % 1010,2 hPa 0,0 l/m 0 min 0 min 20 W/m 12,9 km/h (3 Bft) 93,62 %
22.09.2019 08:00 14,7 C 14,4 C 13,9 C 68 % 1010,2 hPa 0,0 l/m 0 min 0 min 21 W/m 9,7 km/h (2 Bft) 93,62 %
22.09.2019 08:02 14,7 C 14,4 C 13,9 C 68 % 1010,3 hPa 0,0 l/m 0 min 0 min 23 W/m 9,7 km/h (2 Bft) 95,74 %
22.09.2019 08:04 14,7 C 14,4 C 13,9 C 68 % 1010,3 hPa 0,0 l/m 0 min 0 min 23 W/m 9,7 km/h (2 Bft) 93,62 %
22.09.2019 08:06 14,7 C 14,4 C 13,9 C 68 % 1010,4 hPa 0,0 l/m 0 min 0 min 25 W/m 19,3 km/h (3 Bft) 93,48 %
22.09.2019 08:08 14,8 C 14,4 C 13,9 C 68 % 1010,4 hPa 0,0 l/m 0 min 0 min 25 W/m 16,1 km/h (3 Bft) 93,62 %
22.09.2019 08:10 14,8 C 14,4 C 13,9 C 68 % 1010,4 hPa 0,0 l/m 0 min 0 min 26 W/m 16,1 km/h (3 Bft) 93,62 %
22.09.2019 08:12 14,8 C 14,4 C 13,9 C 68 % 1010,4 hPa 0,0 l/m 0 min 0 min 28 W/m 16,1 km/h (3 Bft) 95,74 %
22.09.2019 08:14 14,9 C 14,4 C 13,9 C 68 % 1010,3 hPa 0,0 l/m 0 min 0 min 28 W/m 12,9 km/h (3 Bft) 95,74 %
22.09.2019 08:16 14,9 C 14,4 C 13,9 C 68 % 1010,3 hPa 0,0 l/m 0 min 0 min 28 W/m 9,7 km/h (2 Bft) 95,74 %
22.09.2019 08:18 14,9 C 14,4 C 13,9 C 68 % 1010,3 hPa 0,0 l/m 0 min 0 min 30 W/m 9,7 km/h (2 Bft) 95,65 %
22.09.2019 08:20 15,0 C 15,0 C 13,9 C 67 % 1010,3 hPa 0,0 l/m 0 min 0 min 30 W/m 9,7 km/h (2 Bft) 91,49 %
22.09.2019 08:22 15,0 C 15,0 C 13,9 C 67 % 1010,3 hPa 0,0 l/m 0 min 0 min 32 W/m 16,1 km/h (3 Bft) 93,62 %
22.09.2019 08:24 15,1 C 15,0 C 14,4 C 67 % 1010,3 hPa 0,0 l/m 0 min 0 min 32 W/m 16,1 km/h (3 Bft) 95,74 %
22.09.2019 08:26 15,1 C 15,0 C 14,4 C 67 % 1010,2 hPa 0,0 l/m 0 min 0 min 33 W/m 9,7 km/h (2 Bft) 95,74 %
22.09.2019 08:28 15,1 C 15,0 C 14,4 C 67 % 1010,1 hPa 0,0 l/m 0 min 0 min 34 W/m 16,1 km/h (3 Bft) 91,49 %
22.09.2019 08:30 15,2 C 15,0 C 14,4 C 67 % 1010,2 hPa 0,0 l/m 0 min 0 min 35 W/m 16,1 km/h (3 Bft) 91,30 %
22.09.2019 08:32 15,2 C 15,0 C 14,4 C 67 % 1010,1 hPa 0,0 l/m 0 min 0 min 35 W/m 29,0 km/h (5 Bft) 97,87 %
22.09.2019 08:34 15,2 C 15,6 C 14,4 C 67 % 1010,1 hPa 0,0 l/m 0 min 0 min 37 W/m 9,7 km/h (2 Bft) 97,87 %
22.09.2019 08:36 15,3 C 15,6 C 15,0 C 67 % 1010,1 hPa 0,0 l/m 0 min 0 min 37 W/m 16,1 km/h (3 Bft) 100,00 %
22.09.2019 08:38 15,3 C 15,6 C 15,0 C 67 % 1010,1 hPa 0,0 l/m 0 min 0 min 39 W/m 16,1 km/h (3 Bft) 97,87 %
22.09.2019 08:40 15,4 C 15,6 C 15,0 C 67 % 1010,1 hPa 0,0 l/m 0 min 0 min 39 W/m 29,0 km/h (5 Bft) 97,87 %
22.09.2019 08:42 15,4 C 15,6 C 15,0 C 67 % 1010,1 hPa 0,0 l/m 0 min 0 min 40 W/m 22,5 km/h (4 Bft) 97,83 %
22.09.2019 08:44 15,5 C 15,6 C 15,0 C 66 % 1010,1 hPa 0,0 l/m 0 min 0 min 41 W/m 19,3 km/h (3 Bft) 100,00 %
22.09.2019 08:46 15,6 C 15,6 C 15,0 C 66 % 1010,1 hPa 0,0 l/m 0 min 0 min 42 W/m 16,1 km/h (3 Bft) 97,87 %
22.09.2019 08:48 15,7 C 16,1 C 15,0 C 66 % 1010,1 hPa 0,0 l/m 0 min 0 min 44 W/m 22,5 km/h (4 Bft) 97,87 %
22.09.2019 08:50 15,8 C 16,1 C 15,6 C 66 % 1010,0 hPa 0,0 l/m 0 min 0 min 45 W/m 16,1 km/h (3 Bft) 100,00 %
22.09.2019 08:52 15,8 C 16,1 C 15,6 C 66 % 1010,1 hPa 0,0 l/m 0 min 0 min 47 W/m 16,1 km/h (3 Bft) 100,00 %
22.09.2019 08:54 15,9 C 16,1 C 15,6 C 66 % 1010,0 hPa 0,0 l/m 0 min 0 min 50 W/m 9,7 km/h (2 Bft) 100,00 %
22.09.2019 08:56 15,9 C 16,1 C 15,6 C 66 % 1010,0 hPa 0,0 l/m 0 min 0 min 53 W/m 16,1 km/h (3 Bft) 100,00 %
22.09.2019 08:58 16,0 C 16,1 C 15,6 C 65 % 1010,0 hPa 0,0 l/m 0 min 0 min 54 W/m 29,0 km/h (5 Bft) 100,00 %
22.09.2019 09:00 16,1 C 16,1 C 15,6 C 65 % 1010,1 hPa 0,0 l/m 0 min 0 min 55 W/m 22,5 km/h (4 Bft) 100,00 %
22.09.2019 09:02 16,1 C 16,7 C 15,6 C 65 % 1010,0 hPa 0,0 l/m 0 min 0 min 56 W/m 16,1 km/h (3 Bft) 100,00 %
22.09.2019 09:04 16,2 C 16,7 C 15,6 C 65 % 1010,0 hPa 0,0 l/m 0 min 0 min 58 W/m 25,7 km/h (4 Bft) 100,00 %
22.09.2019 09:06 16,3 C 16,7 C 15,6 C 65 % 1010,0 hPa 0,0 l/m 0 min 0 min 60 W/m 19,3 km/h (3 Bft) 100,00 %
22.09.2019 09:08 16,3 C 16,7 C 16,1 C 64 % 1010,2 hPa 0,0 l/m 0 min 0 min 61 W/m 19,3 km/h (3 Bft) 100,00 %
22.09.2019 09:10 16,4 C 16,7 C 16,1 C 64 % 1010,1 hPa 0,0 l/m 0 min 0 min 62 W/m 16,1 km/h (3 Bft) 100,00 %
22.09.2019 09:12 16,5 C 16,7 C 16,1 C 64 % 1010,1 hPa 0,0 l/m 0 min 0 min 62 W/m 16,1 km/h (3 Bft) 100,00 %
22.09.2019 09:14 16,6 C 16,7 C 16,1 C 64 % 1010,1 hPa 0,0 l/m 0 min 0 min 63 W/m 22,5 km/h (4 Bft) 100,00 %
22.09.2019 09:16 16,6 C 16,7 C 16,1 C 64 % 1010,1 hPa 0,0 l/m 0 min 0 min 65 W/m 16,1 km/h (3 Bft) 95,65 %
22.09.2019 09:18 16,7 C 16,7 C 16,1 C 64 % 1010,1 hPa 0,0 l/m 0 min 0 min 68 W/m 16,1 km/h (3 Bft) 100,00 %
22.09.2019 09:20 16,7 C 17,2 C 16,1 C 64 % 1010,1 hPa 0,0 l/m 0 min 0 min 70 W/m 16,1 km/h (3 Bft) 100,00 %
22.09.2019 09:22 16,8 C 17,2 C 16,1 C 64 % 1010,1 hPa 0,0 l/m 0 min 0 min 71 W/m 29,0 km/h (5 Bft) 100,00 %
22.09.2019 09:24 16,8 C 17,2 C 16,7 C 64 % 1010,1 hPa 0,0 l/m 0 min 0 min 74 W/m 16,1 km/h (3 Bft) 100,00 %
22.09.2019 09:26 16,9 C 17,2 C 16,7 C 63 % 1010,1 hPa 0,0 l/m 0 min 0 min 77 W/m 25,7 km/h (4 Bft) 97,87 %
22.09.2019 09:28 17,0 C 17,2 C 16,7 C 63 % 1010,1 hPa 0,0 l/m 0 min 0 min 88 W/m 22,5 km/h (4 Bft) 100,00 %
22.09.2019 09:30 17,1 C 17,2 C 16,7 C 63 % 1010,1 hPa 0,0 l/m 2 min 0 min 182 W/m 25,7 km/h (4 Bft) 100,00 %
22.09.2019 09:32 17,1 C 17,8 C 16,7 C 63 % 1010,1 hPa 0,0 l/m 2 min 0 min 256 W/m 9,7 km/h (2 Bft) 100,00 %
22.09.2019 09:34 17,2 C 18,9 C 16,7 C 63 % 1010,1 hPa 0,0 l/m 2 min 0 min 256 W/m 22,5 km/h (4 Bft) 100,00 %
22.09.2019 09:36 17,2 C 20,0 C 16,7 C 63 % 1010,1 hPa 0,0 l/m 2 min 0 min 263 W/m 22,5 km/h (4 Bft) 100,00 %
22.09.2019 09:38 17,3 C 20,6 C 16,7 C 63 % 1010,1 hPa 0,0 l/m 2 min 0 min 282 W/m 22,5 km/h (4 Bft) 100,00 %
22.09.2019 09:40 17,4 C 21,1 C 16,7 C 62 % 1010,1 hPa 0,0 l/m 2 min 0 min 300 W/m 25,7 km/h (4 Bft) 100,00 %
22.09.2019 09:42 17,6 C 21,1 C 17,2 C 62 % 1010,2 hPa 0,0 l/m 2 min 0 min 301 W/m 22,5 km/h (4 Bft) 100,00 %
22.09.2019 09:44 17,7 C 21,1 C 17,2 C 62 % 1010,1 hPa 0,0 l/m 2 min 0 min 299 W/m 22,5 km/h (4 Bft) 100,00 %
22.09.2019 09:46 17,8 C 21,7 C 17,2 C 62 % 1010,1 hPa 0,0 l/m 2 min 0 min 313 W/m 16,1 km/h (3 Bft) 100,00 %
22.09.2019 09:48 17,9 C 21,7 C 17,2 C 62 % 1010,0 hPa 0,0 l/m 2 min 0 min 340 W/m 22,5 km/h (4 Bft) 95,74 %
22.09.2019 09:50 18,1 C 22,2 C 17,8 C 61 % 1010,0 hPa 0,0 l/m 2 min 0 min 330 W/m 19,3 km/h (3 Bft) 97,83 %
22.09.2019 09:52 18,3 C 22,2 C 17,8 C 61 % 1010,1 hPa 0,0 l/m 2 min 0 min 309 W/m 12,9 km/h (3 Bft) 97,87 %
22.09.2019 09:54 18,4 C 23,3 C 18,3 C 61 % 1010,1 hPa 0,0 l/m 2 min 0 min 346 W/m 22,5 km/h (4 Bft) 95,74 %
22.09.2019 09:56 18,6 C 23,3 C 20,6 C 60 % 1010,1 hPa 0,0 l/m 2 min 0 min 359 W/m 16,1 km/h (3 Bft) 95,74 %
22.09.2019 09:58 18,7 C 23,3 C 21,7 C 60 % 1010,1 hPa 0,0 l/m 2 min 0 min 360 W/m 19,3 km/h (3 Bft) 97,87 %
22.09.2019 10:00 18,8 C 22,8 C 22,2 C 60 % 1010,1 hPa 0,0 l/m 2 min 0 min 322 W/m 16,1 km/h (3 Bft) 97,87 %
22.09.2019 10:02 18,9 C 22,8 C 22,8 C 59 % 1010,1 hPa 0,0 l/m 2 min 0 min 374 W/m 22,5 km/h (4 Bft) 95,65 %
22.09.2019 10:04 19,1 C 23,3 C 23,3 C 59 % 1010,1 hPa 0,0 l/m 2 min 0 min 383 W/m 22,5 km/h (4 Bft) 97,87 %
22.09.2019 10:06 19,2 C 23,3 C 23,9 C 59 % 1010,1 hPa 0,0 l/m 2 min 0 min 381 W/m 22,5 km/h (4 Bft) 97,87 %
22.09.2019 10:08 19,3 C 23,3 C 23,9 C 58 % 1010,1 hPa 0,0 l/m 2 min 0 min 403 W/m 16,1 km/h (3 Bft) 95,74 %
22.09.2019 10:10 19,5 C 23,9 C 24,4 C 58 % 1010,1 hPa 0,0 l/m 2 min 0 min 416 W/m 22,5 km/h (4 Bft) 97,87 %
22.09.2019 10:12 19,6 C 23,9 C 23,9 C 57 % 1010,1 hPa 0,0 l/m 2 min 0 min 422 W/m 19,3 km/h (3 Bft) 95,74 %
22.09.2019 10:14 19,7 C 23,3 C 23,3 C 57 % 1010,0 hPa 0,0 l/m 2 min 0 min 409 W/m 25,7 km/h (4 Bft) 97,83 %
22.09.2019 10:16 19,8 C 23,3 C 23,9 C 57 % 1010,1 hPa 0,0 l/m 2 min 0 min 411 W/m 22,5 km/h (4 Bft) 97,87 %
22.09.2019 10:18 19,9 C 23,3 C 23,9 C 57 % 1010,0 hPa 0,0 l/m 2 min 0 min 432 W/m 25,7 km/h (4 Bft) 97,87 %
22.09.2019 10:20 20,0 C 23,3 C 23,9 C 57 % 1010,0 hPa 0,0 l/m 2 min 0 min 432 W/m 22,5 km/h (4 Bft) 97,87 %
22.09.2019 10:22 20,1 C 23,3 C 23,9 C 56 % 1010,0 hPa 0,0 l/m 2 min 0 min 431 W/m 29,0 km/h (5 Bft) 97,87 %
22.09.2019 10:24 20,2 C 24,4 C 25,0 C 57 % 1010,0 hPa 0,0 l/m 2 min 0 min 451 W/m 25,7 km/h (4 Bft) 97,87 %
22.09.2019 10:26 20,3 C 24,4 C 25,0 C 56 % 1010,0 hPa 0,0 l/m 2 min 0 min 452 W/m 19,3 km/h (3 Bft) 97,83 %
22.09.2019 10:28 20,4 C 23,9 C 24,4 C 56 % 1010,0 hPa 0,0 l/m 2 min 0 min 444 W/m 22,5 km/h (4 Bft) 100,00 %
22.09.2019 10:30 20,5 C 24,4 C 24,4 C 56 % 1010,0 hPa 0,0 l/m 2 min 0 min 384 W/m 22,5 km/h (4 Bft) 100,00 %
22.09.2019 10:32 20,6 C 25,0 C 24,4 C 56 % 1010,0 hPa 0,0 l/m 2 min 0 min 472 W/m 19,3 km/h (3 Bft) 100,00 %
22.09.2019 10:34 20,7 C 25,0 C 25,0 C 56 % 1010,0 hPa 0,0 l/m 2 min 0 min 468 W/m 16,1 km/h (3 Bft) 100,00 %
22.09.2019 10:36 20,7 C 25,0 C 24,4 C 55 % 1010,0 hPa 0,0 l/m 2 min 0 min 477 W/m 16,1 km/h (3 Bft) 100,00 %
22.09.2019 10:38 20,8 C 25,0 C 24,4 C 55 % 1010,0 hPa 0,0 l/m 2 min 0 min 429 W/m 22,5 km/h (4 Bft) 97,83 %
22.09.2019 10:40 20,9 C 24,4 C 23,3 C 55 % 1010,0 hPa 0,0 l/m 2 min 0 min 469 W/m 19,3 km/h (3 Bft) 97,87 %
22.09.2019 10:42 21,0 C 24,4 C 22,2 C 55 % 1009,8 hPa 0,0 l/m 2 min 0 min 515 W/m 29,0 km/h (5 Bft) 97,87 %
22.09.2019 10:44 21,1 C 25,0 C 21,7 C 54 % 1010,0 hPa 0,0 l/m 2 min 0 min 517 W/m 22,5 km/h (4 Bft) 97,87 %
22.09.2019 10:46 21,1 C 24,4 C 21,1 C 54 % 1009,9 hPa 0,0 l/m 2 min 0 min 518 W/m 22,5 km/h (4 Bft) 100,00 %
22.09.2019 10:48 21,2 C 25,0 C 21,1 C 54 % 1009,9 hPa 0,0 l/m 2 min 0 min 539 W/m 16,1 km/h (3 Bft) 97,87 %
22.09.2019 10:50 21,3 C 25,0 C 21,1 C 54 % 1009,8 hPa 0,0 l/m 2 min 0 min 517 W/m 25,7 km/h (4 Bft) 95,65 %
22.09.2019 10:52 21,3 C 24,4 C 21,1 C 54 % 1009,9 hPa 0,0 l/m 2 min 0 min 455 W/m 29,0 km/h (5 Bft) 95,74 %
22.09.2019 10:54 21,4 C 24,4 C 21,1 C 54 % 1009,8 hPa 0,0 l/m 2 min 0 min 411 W/m 22,5 km/h (4 Bft) 95,74 %
22.09.2019 10:56 21,4 C 24,4 C 21,1 C 54 % 1010,0 hPa 0,0 l/m 2 min 0 min 502 W/m 29,0 km/h (5 Bft) 97,87 %
22.09.2019 10:58 21,4 C 25,0 C 21,1 C 54 % 1009,9 hPa 0,0 l/m 2 min 0 min 521 W/m 19,3 km/h (3 Bft) 95,74 %
22.09.2019 11:00 21,5 C 25,0 C 20,6 C 54 % 1009,9 hPa 0,0 l/m 2 min 0 min 472 W/m 19,3 km/h (3 Bft) 95,65 %
22.09.2019 11:02 21,5 C 25,0 C 21,1 C 54 % 1009,9 hPa 0,0 l/m 2 min 0 min 468 W/m 29,0 km/h (5 Bft) 93,62 %
22.09.2019 11:04 21,6 C 24,4 C 21,1 C 54 % 1010,0 hPa 0,0 l/m 2 min 0 min 441 W/m 32,2 km/h (5 Bft) 97,87 %
22.09.2019 11:06 21,6 C 24,4 C 21,1 C 54 % 1009,9 hPa 0,0 l/m 2 min 0 min 454 W/m 25,7 km/h (4 Bft) 97,87 %
22.09.2019 11:08 21,6 C 25,0 C 21,1 C 54 % 1009,9 hPa 0,0 l/m 2 min 0 min 467 W/m 19,3 km/h (3 Bft) 93,62 %
22.09.2019 11:10 21,7 C 25,0 C 21,1 C 54 % 1009,8 hPa 0,0 l/m 2 min 0 min 457 W/m 25,7 km/h (4 Bft) 93,62 %
22.09.2019 11:12 21,7 C 24,4 C 21,1 C 53 % 1009,8 hPa 0,0 l/m 2 min 0 min 500 W/m 29,0 km/h (5 Bft) 95,65 %
22.09.2019 11:14 21,7 C 25,0 C 21,1 C 54 % 1009,8 hPa 0,0 l/m 2 min 0 min 502 W/m 25,7 km/h (4 Bft) 95,74 %
22.09.2019 11:16 21,7 C 25,0 C 21,1 C 54 % 1009,8 hPa 0,0 l/m 2 min 0 min 557 W/m 25,7 km/h (4 Bft) 93,62 %
22.09.2019 11:18 21,8 C 25,6 C 21,1 C 54 % 1009,8 hPa 0,0 l/m 2 min 0 min 557 W/m 25,7 km/h (4 Bft) 93,62 %
22.09.2019 11:20 21,9 C 25,6 C 21,7 C 54 % 1009,8 hPa 0,0 l/m 2 min 0 min 529 W/m 19,3 km/h (3 Bft) 93,62 %
22.09.2019 11:22 21,9 C 25,6 C 21,7 C 54 % 1009,7 hPa 0,0 l/m 2 min 0 min 489 W/m 25,7 km/h (4 Bft) 95,74 %
22.09.2019 11:24 22,0 C 25,0 C 21,1 C 54 % 1009,7 hPa 0,0 l/m 2 min 0 min 490 W/m 25,7 km/h (4 Bft) 95,65 %
22.09.2019 11:26 22,1 C 24,4 C 21,1 C 54 % 1009,7 hPa 0,0 l/m 2 min 0 min 428 W/m 35,4 km/h (5 Bft) 91,49 %
22.09.2019 11:28 22,1 C 24,4 C 21,1 C 53 % 1009,6 hPa 0,0 l/m 2 min 0 min 413 W/m 29,0 km/h (5 Bft) 95,74 %
22.09.2019 11:30 22,1 C 23,9 C 21,1 C 53 % 1009,5 hPa 0,0 l/m 2 min 0 min 429 W/m 32,2 km/h (5 Bft) 95,74 %
22.09.2019 11:32 22,1 C 25,0 C 21,1 C 54 % 1009,6 hPa 0,0 l/m 2 min 0 min 520 W/m 22,5 km/h (4 Bft) 93,62 %
22.09.2019 11:34 22,1 C 25,6 C 21,7 C 54 % 1009,6 hPa 0,0 l/m 2 min 0 min 571 W/m 25,7 km/h (4 Bft) 93,62 %
22.09.2019 11:36 22,2 C 26,1 C 21,7 C 54 % 1009,5 hPa 0,0 l/m 2 min 0 min 577 W/m 22,5 km/h (4 Bft) 95,65 %
22.09.2019 11:38 22,2 C 26,7 C 21,7 C 54 % 1009,5 hPa 0,0 l/m 2 min 0 min 616 W/m 25,7 km/h (4 Bft) 95,74 %
22.09.2019 11:40 22,3 C 27,2 C 21,7 C 54 % 1009,5 hPa 0,0 l/m 2 min 0 min 617 W/m 25,7 km/h (4 Bft) 97,87 %
22.09.2019 11:42 22,3 C 27,2 C 21,7 C 54 % 1009,5 hPa 0,0 l/m 2 min 0 min 603 W/m 22,5 km/h (4 Bft) 95,74 %
22.09.2019 11:44 22,4 C 27,2 C 21,7 C 54 % 1009,4 hPa 0,0 l/m 2 min 0 min 604 W/m 25,7 km/h (4 Bft) 97,87 %
22.09.2019 11:46 22,5 C 27,2 C 21,7 C 53 % 1009,4 hPa 0,0 l/m 2 min 0 min 608 W/m 25,7 km/h (4 Bft) 97,87 %
22.09.2019 11:48 22,6 C 26,7 C 21,7 C 53 % 1009,4 hPa 0,0 l/m 2 min 0 min 586 W/m 25,7 km/h (4 Bft) 97,83 %
22.09.2019 11:50 22,7 C 27,2 C 22,2 C 54 % 1009,4 hPa 0,0 l/m 2 min 0 min 561 W/m 16,1 km/h (3 Bft) 97,87 %
22.09.2019 11:52 22,7 C 26,1 C 21,7 C 53 % 1009,3 hPa 0,0 l/m 2 min 0 min 471 W/m 29,0 km/h (5 Bft) 95,74 %
22.09.2019 11:54 22,8 C 26,1 C 21,7 C 53 % 1009,2 hPa 0,0 l/m 2 min 0 min 508 W/m 16,1 km/h (3 Bft) 97,87 %
22.09.2019 11:56 22,8 C 26,1 C 21,7 C 53 % 1009,2 hPa 0,0 l/m 2 min 0 min 562 W/m 22,5 km/h (4 Bft) 97,87 %
22.09.2019 11:58 22,9 C 26,7 C 21,7 C 53 % 1009,2 hPa 0,0 l/m 2 min 0 min 594 W/m 25,7 km/h (4 Bft) 97,87 %
22.09.2019 12:00 23,0 C 27,2 C 22,2 C 53 % 1009,2 hPa 0,0 l/m 2 min 0 min 628 W/m 22,5 km/h (4 Bft) 97,83 %
22.09.2019 12:02 23,1 C 27,2 C 22,2 C 53 % 1009,2 hPa 0,0 l/m 2 min 0 min 627 W/m 19,3 km/h (3 Bft) 97,87 %
22.09.2019 12:04 23,1 C 27,8 C 22,2 C 53 % 1009,2 hPa 0,0 l/m 2 min 0 min 625 W/m 12,9 km/h (3 Bft) 97,87 %
22.09.2019 12:08 23,3 C 28,3 C 22,8 C 53 % 1009,3 hPa 0,0 l/m 4 min 0 min 622 W/m 25,7 km/h (4 Bft) 97,87 %
22.09.2019 12:10 23,4 C 27,8 C 22,2 C 52 % 1009,4 hPa 0,0 l/m 2 min 0 min 594 W/m 22,5 km/h (4 Bft) 97,83 %
22.09.2019 12:12 23,4 C 28,3 C 22,8 C 53 % 1009,3 hPa 0,0 l/m 2 min 0 min 579 W/m 19,3 km/h (3 Bft) 97,87 %
22.09.2019 12:14 23,6 C 28,9 C 22,8 C 52 % 1009,3 hPa 0,0 l/m 2 min 0 min 610 W/m 19,3 km/h (3 Bft) 97,87 %
22.09.2019 12:16 23,7 C 28,9 C 22,8 C 52 % 1009,3 hPa 0,0 l/m 2 min 0 min 679 W/m 12,9 km/h (3 Bft) 97,87 %
22.09.2019 12:18 23,8 C 28,9 C 22,8 C 52 % 1009,2 hPa 0,0 l/m 2 min 0 min 674 W/m 19,3 km/h (3 Bft) 97,87 %
22.09.2019 12:20 23,9 C 30,0 C 23,3 C 52 % 1009,2 hPa 0,0 l/m 2 min 0 min 659 W/m 9,7 km/h (2 Bft) 97,87 %
22.09.2019 12:22 24,0 C 30,6 C 23,3 C 52 % 1009,2 hPa 0,0 l/m 2 min 0 min 678 W/m 19,3 km/h (3 Bft) 97,83 %
22.09.2019 12:24 24,1 C 30,0 C 23,3 C 52 % 1009,1 hPa 0,0 l/m 2 min 0 min 687 W/m 12,9 km/h (3 Bft) 97,87 %
22.09.2019 12:26 24,3 C 30,0 C 23,3 C 51 % 1009,3 hPa 0,0 l/m 2 min 0 min 702 W/m 25,7 km/h (4 Bft) 97,87 %
22.09.2019 12:28 24,4 C 28,3 C 23,3 C 51 % 1009,2 hPa 0,0 l/m 2 min 0 min 671 W/m 25,7 km/h (4 Bft) 97,87 %
22.09.2019 12:30 24,4 C 27,8 C 22,8 C 51 % 1009,2 hPa 0,0 l/m 2 min 0 min 514 W/m 25,7 km/h (4 Bft) 93,62 %
22.09.2019 12:32 24,5 C 27,2 C 22,8 C 50 % 1009,2 hPa 0,0 l/m 2 min 0 min 470 W/m 19,3 km/h (3 Bft) 97,87 %
22.09.2019 12:34 24,6 C 27,2 C 22,8 C 51 % 1009,2 hPa 0,0 l/m 2 min 0 min 470 W/m 16,1 km/h (3 Bft) 97,83 %
22.09.2019 12:36 24,6 C 27,8 C 23,3 C 51 % 1009,1 hPa 0,0 l/m 2 min 0 min 513 W/m 12,9 km/h (3 Bft) 97,87 %
22.09.2019 12:38 24,7 C 27,8 C 23,3 C 51 % 1009,0 hPa 0,0 l/m 2 min 0 min 478 W/m 12,9 km/h (3 Bft) 97,87 %
22.09.2019 12:40 24,7 C 27,2 C 23,3 C 51 % 1009,0 hPa 0,0 l/m 2 min 0 min 392 W/m 19,3 km/h (3 Bft) 97,87 %
22.09.2019 12:42 24,7 C 27,2 C 23,3 C 51 % 1008,9 hPa 0,0 l/m 2 min 0 min 420 W/m 25,7 km/h (4 Bft) 97,87 %
22.09.2019 12:44 24,7 C 27,2 C 23,3 C 51 % 1008,9 hPa 0,0 l/m 2 min 0 min 468 W/m 19,3 km/h (3 Bft) 97,87 %
22.09.2019 12:46 24,7 C 27,8 C 23,3 C 51 % 1008,9 hPa 0,0 l/m 2 min 0 min 500 W/m 19,3 km/h (3 Bft) 97,83 %
22.09.2019 12:48 24,8 C 28,3 C 23,9 C 51 % 1008,9 hPa 0,0 l/m 2 min 0 min 557 W/m 16,1 km/h (3 Bft) 95,74 %
22.09.2019 12:50 24,8 C 28,9 C 23,9 C 51 % 1008,8 hPa 0,0 l/m 2 min 0 min 625 W/m 12,9 km/h (3 Bft) 97,87 %
22.09.2019 12:52 24,9 C 29,4 C 23,9 C 51 % 1008,8 hPa 0,0 l/m 2 min 0 min 707 W/m 19,3 km/h (3 Bft) 97,87 %
22.09.2019 12:54 24,9 C 30,0 C 24,4 C 51 % 1008,7 hPa 0,0 l/m 2 min 0 min 646 W/m 12,9 km/h (3 Bft) 95,74 %
22.09.2019 12:56 25,1 C 30,0 C 24,4 C 51 % 1008,7 hPa 0,0 l/m 2 min 0 min 632 W/m 16,1 km/h (3 Bft) 97,83 %
22.09.2019 12:58 25,1 C 29,4 C 24,4 C 51 % 1008,7 hPa 0,0 l/m 2 min 0 min 620 W/m 12,9 km/h (3 Bft) 97,87 %
22.09.2019 13:00 25,2 C 30,0 C 24,4 C 51 % 1008,6 hPa 0,0 l/m 2 min 0 min 634 W/m 12,9 km/h (3 Bft) 100,00 %
22.09.2019 13:02 25,3 C 30,0 C 24,4 C 51 % 1008,6 hPa 0,0 l/m 2 min 0 min 688 W/m 16,1 km/h (3 Bft) 100,00 %
22.09.2019 13:04 25,4 C 29,4 C 24,4 C 51 % 1008,6 hPa 0,0 l/m 2 min 0 min 605 W/m 16,1 km/h (3 Bft) 97,87 %
22.09.2019 13:06 25,4 C 29,4 C 24,4 C 51 % 1008,6 hPa 0,0 l/m 2 min 0 min 596 W/m 25,7 km/h (4 Bft) 100,00 %
22.09.2019 13:08 25,5 C 30,0 C 24,4 C 50 % 1008,5 hPa 0,0 l/m 2 min 0 min 664 W/m 16,1 km/h (3 Bft) 100,00 %
22.09.2019 13:10 25,6 C 29,4 C 24,4 C 51 % 1008,5 hPa 0,0 l/m 2 min 0 min 671 W/m 25,7 km/h (4 Bft) 100,00 %
22.09.2019 13:12 25,7 C 30,0 C 24,4 C 51 % 1008,5 hPa 0,0 l/m 2 min 0 min 670 W/m 22,5 km/h (4 Bft) 100,00 %
22.09.2019 13:14 25,7 C 30,6 C 25,0 C 51 % 1008,5 hPa 0,0 l/m 2 min 0 min 670 W/m 12,9 km/h (3 Bft) 100,00 %
22.09.2019 13:16 25,8 C 30,0 C 25,0 C 51 % 1008,5 hPa 0,0 l/m 2 min 0 min 636 W/m 19,3 km/h (3 Bft) 100,00 %
22.09.2019 13:18 25,8 C 30,0 C 25,0 C 51 % 1008,5 hPa 0,0 l/m 2 min 0 min 585 W/m 22,5 km/h (4 Bft) 100,00 %
22.09.2019 13:20 25,9 C 30,0 C 25,0 C 51 % 1008,4 hPa 0,0 l/m 2 min 0 min 608 W/m 22,5 km/h (4 Bft) 100,00 %
22.09.2019 13:22 25,9 C 30,6 C 25,0 C 51 % 1008,4 hPa 0,0 l/m 2 min 0 min 621 W/m 16,1 km/h (3 Bft) 100,00 %
22.09.2019 13:24 26,1 C 30,0 C 25,0 C 51 % 1008,4 hPa 0,0 l/m 2 min 0 min 639 W/m 22,5 km/h (4 Bft) 100,00 %
22.09.2019 13:26 26,1 C 29,4 C 25,0 C 51 % 1008,4 hPa 0,0 l/m 2 min 0 min 671 W/m 16,1 km/h (3 Bft) 100,00 %
22.09.2019 13:28 26,1 C 27,8 C 25,0 C 51 % 1008,4 hPa 0,0 l/m 2 min 0 min 334 W/m 16,1 km/h (3 Bft) 100,00 %
22.09.2019 13:30 26,2 C 27,8 C 25,0 C 51 % 1008,4 hPa 0,0 l/m 0 min 0 min 224 W/m 22,5 km/h (4 Bft) 100,00 %
22.09.2019 13:32 26,2 C 29,4 C 26,1 C 51 % 1008,4 hPa 0,0 l/m 2 min 0 min 321 W/m 19,3 km/h (3 Bft) 100,00 %
22.09.2019 13:34 26,2 C 30,6 C 27,8 C 51 % 1008,4 hPa 0,0 l/m 2 min 0 min 827 W/m 22,5 km/h (4 Bft) 100,00 %
22.09.2019 13:36 26,3 C 31,7 C 30,6 C 52 % 1008,3 hPa 0,0 l/m 2 min 0 min 821 W/m 9,7 km/h (2 Bft) 97,87 %
22.09.2019 13:38 26,3 C 31,7 C 30,6 C 51 % 1008,3 hPa 0,0 l/m 2 min 0 min 835 W/m 16,1 km/h (3 Bft) 100,00 %
22.09.2019 13:40 26,4 C 32,2 C 31,7 C 52 % 1008,4 hPa 0,0 l/m 2 min 0 min 791 W/m 16,1 km/h (3 Bft) 100,00 %
22.09.2019 13:42 26,6 C 32,8 C 32,2 C 52 % 1008,3 hPa 0,0 l/m 2 min 0 min 757 W/m 12,9 km/h (3 Bft) 100,00 %
22.09.2019 13:44 26,7 C 30,6 C 30,0 C 51 % 1008,3 hPa 0,0 l/m 2 min 0 min 473 W/m 16,1 km/h (3 Bft) 100,00 %
22.09.2019 13:46 26,7 C 28,9 C 28,3 C 50 % 1008,3 hPa 0,0 l/m 0 min 0 min 222 W/m 22,5 km/h (4 Bft) 100,00 %
22.09.2019 13:48 26,8 C 28,9 C 27,2 C 50 % 1008,3 hPa 0,0 l/m 2 min 0 min 436 W/m 22,5 km/h (4 Bft) 100,00 %
22.09.2019 13:50 26,8 C 30,6 C 28,3 C 50 % 1008,2 hPa 0,0 l/m 2 min 0 min 743 W/m 16,1 km/h (3 Bft) 100,00 %
22.09.2019 13:52 26,8 C 31,7 C 28,9 C 50 % 1008,2 hPa 0,0 l/m 2 min 0 min 757 W/m 22,5 km/h (4 Bft) 100,00 %
22.09.2019 13:54 26,9 C 32,2 C 28,9 C 50 % 1008,1 hPa 0,0 l/m 2 min 0 min 730 W/m 22,5 km/h (4 Bft) 100,00 %
22.09.2019 13:56 27,0 C 32,2 C 28,9 C 50 % 1008,2 hPa 0,0 l/m 2 min 0 min 708 W/m 16,1 km/h (3 Bft) 100,00 %
22.09.2019 13:58 27,1 C 31,7 C 27,2 C 49 % 1008,2 hPa 0,0 l/m 2 min 0 min 697 W/m 25,7 km/h (4 Bft) 100,00 %
22.09.2019 14:00 27,1 C 32,2 C 27,2 C 50 % 1008,1 hPa 0,0 l/m 2 min 0 min 690 W/m 16,1 km/h (3 Bft) 95,74 %
22.09.2019 14:02 27,2 C 31,7 C 26,7 C 50 % 1008,0 hPa 0,0 l/m 2 min 0 min 687 W/m 29,0 km/h (5 Bft) 97,87 %
22.09.2019 14:04 27,3 C 31,7 C 26,7 C 50 % 1008,1 hPa 0,0 l/m 2 min 0 min 686 W/m 22,5 km/h (4 Bft) 97,87 %
22.09.2019 14:06 27,3 C 31,7 C 26,7 C 50 % 1008,1 hPa 0,0 l/m 2 min 0 min 686 W/m 25,7 km/h (4 Bft) 97,83 %
22.09.2019 14:08 27,4 C 32,8 C 26,7 C 50 % 1008,1 hPa 0,0 l/m 2 min 0 min 686 W/m 22,5 km/h (4 Bft) 97,87 %
22.09.2019 14:10 27,5 C 32,2 C 26,7 C 50 % 1008,1 hPa 0,0 l/m 2 min 0 min 686 W/m 12,9 km/h (3 Bft) 97,87 %
22.09.2019 14:12 27,6 C 32,2 C 26,7 C 50 % 1008,1 hPa 0,0 l/m 2 min 0 min 686 W/m 16,1 km/h (3 Bft) 97,87 %
22.09.2019 14:14 27,7 C 32,8 C 26,7 C 50 % 1008,0 hPa 0,0 l/m 2 min 0 min 688 W/m 19,3 km/h (3 Bft) 95,74 %
22.09.2019 14:16 27,7 C 31,7 C 26,7 C 49 % 1008,0 hPa 0,0 l/m 2 min 0 min 693 W/m 25,7 km/h (4 Bft) 95,74 %
22.09.2019 14:18 27,8 C 32,2 C 26,7 C 49 % 1008,0 hPa 0,0 l/m 2 min 0 min 702 W/m 29,0 km/h (5 Bft) 97,83 %
22.09.2019 14:20 27,8 C 32,2 C 27,2 C 50 % 1008,0 hPa 0,0 l/m 2 min 0 min 707 W/m 16,1 km/h (3 Bft) 97,87 %
22.09.2019 14:22 27,8 C 32,8 C 27,2 C 50 % 1007,9 hPa 0,0 l/m 2 min 0 min 703 W/m 16,1 km/h (3 Bft) 97,87 %
22.09.2019 14:24 27,9 C 33,3 C 27,2 C 50 % 1007,9 hPa 0,0 l/m 2 min 0 min 698 W/m 16,1 km/h (3 Bft) 95,74 %
22.09.2019 14:26 27,9 C 32,8 C 27,2 C 50 % 1007,9 hPa 0,0 l/m 2 min 0 min 698 W/m 19,3 km/h (3 Bft) 95,74 %
22.09.2019 14:28 28,0 C 32,8 C 27,2 C 50 % 1007,9 hPa 0,0 l/m 2 min 0 min 706 W/m 29,0 km/h (5 Bft) 97,87 %
22.09.2019 14:30 28,1 C 32,8 C 27,2 C 50 % 1007,9 hPa 0,0 l/m 2 min 0 min 721 W/m 16,1 km/h (3 Bft) 97,83 %
22.09.2019 14:32 28,1 C 33,3 C 27,8 C 49 % 1007,9 hPa 0,0 l/m 2 min 0 min 729 W/m 16,1 km/h (3 Bft) 93,62 %
22.09.2019 14:34 28,2 C 32,8 C 27,2 C 49 % 1008,0 hPa 0,0 l/m 2 min 0 min 720 W/m 29,0 km/h (5 Bft) 95,74 %
22.09.2019 14:36 28,2 C 33,3 C 27,8 C 49 % 1008,0 hPa 0,0 l/m 2 min 0 min 708 W/m 19,3 km/h (3 Bft) 95,74 %
22.09.2019 14:38 28,3 C 33,3 C 27,8 C 48 % 1007,9 hPa 0,0 l/m 2 min 0 min 703 W/m 16,1 km/h (3 Bft) 97,87 %
22.09.2019 14:40 28,3 C 32,2 C 27,2 C 48 % 1007,9 hPa 0,0 l/m 2 min 0 min 705 W/m 22,5 km/h (4 Bft) 93,62 %
22.09.2019 14:42 28,4 C 31,1 C 27,2 C 48 % 1007,8 hPa 0,0 l/m 2 min 0 min 468 W/m 16,1 km/h (3 Bft) 95,65 %
22.09.2019 14:44 28,4 C 29,4 C 26,7 C 48 % 1007,9 hPa 0,0 l/m 0 min 0 min 263 W/m 12,9 km/h (3 Bft) 95,74 %
22.09.2019 14:46 28,4 C 28,3 C 26,1 C 48 % 1007,8 hPa 0,0 l/m 0 min 0 min 164 W/m 16,1 km/h (3 Bft) 95,74 %
22.09.2019 14:48 28,3 C 27,8 C 26,1 C 49 % 1007,8 hPa 0,0 l/m 0 min 0 min 164 W/m 22,5 km/h (4 Bft) 95,74 %
22.09.2019 14:50 28,3 C 27,2 C 26,1 C 49 % 1007,8 hPa 0,0 l/m 0 min 0 min 178 W/m 16,1 km/h (3 Bft) 93,62 %
22.09.2019 14:52 28,2 C 27,2 C 26,1 C 49 % 1007,9 hPa 0,0 l/m 0 min 0 min 188 W/m 19,3 km/h (3 Bft) 93,62 %
22.09.2019 14:54 28,1 C 27,2 C 26,1 C 50 % 1007,7 hPa 0,0 l/m 0 min 0 min 209 W/m 6,4 km/h (2 Bft) 93,48 %
22.09.2019 14:56 28,1 C 27,2 C 26,1 C 49 % 1007,6 hPa 0,0 l/m 0 min 0 min 215 W/m 19,3 km/h (3 Bft) 93,62 %
22.09.2019 14:58 28,0 C 27,2 C 26,1 C 50 % 1007,6 hPa 0,0 l/m 0 min 0 min 213 W/m 16,1 km/h (3 Bft) 95,74 %
22.09.2019 15:00 27,9 C 27,2 C 26,1 C 50 % 1007,5 hPa 0,0 l/m 0 min 0 min 197 W/m 16,1 km/h (3 Bft) 93,62 %
22.09.2019 15:02 27,8 C 26,7 C 26,1 C 50 % 1007,5 hPa 0,0 l/m 0 min 0 min 184 W/m 19,3 km/h (3 Bft) 95,74 %
22.09.2019 15:04 27,7 C 26,7 C 26,1 C 50 % 1007,6 hPa 0,0 l/m 0 min 0 min 183 W/m 16,1 km/h (3 Bft) 95,74 %
22.09.2019 15:06 27,7 C 26,7 C 26,1 C 50 % 1007,5 hPa 0,0 l/m 0 min 0 min 185 W/m 16,1 km/h (3 Bft) 93,48 %
22.09.2019 15:08 27,6 C 26,7 C 26,1 C 50 % 1007,6 hPa 0,0 l/m 0 min 0 min 185 W/m 16,1 km/h (3 Bft) 93,62 %
22.09.2019 15:10 27,5 C 26,7 C 25,6 C 50 % 1007,6 hPa 0,0 l/m 0 min 0 min 188 W/m 16,1 km/h (3 Bft) 93,62 %
22.09.2019 15:12 27,4 C 28,9 C 26,1 C 50 % 1007,6 hPa 0,0 l/m 2 min 0 min 358 W/m 9,7 km/h (2 Bft) 95,74 %
22.09.2019 15:14 27,4 C 29,4 C 26,1 C 51 % 1007,4 hPa 0,0 l/m 2 min 0 min 687 W/m 12,9 km/h (3 Bft) 93,62 %
22.09.2019 15:16 27,3 C 28,9 C 26,7 C 51 % 1007,5 hPa 0,0 l/m 2 min 0 min 484 W/m 9,7 km/h (2 Bft) 93,48 %
22.09.2019 15:18 27,3 C 28,9 C 26,7 C 51 % 1007,4 hPa 0,0 l/m 0 min 0 min 256 W/m 19,3 km/h (3 Bft) 93,62 %
22.09.2019 15:20 27,3 C 28,3 C 26,7 C 51 % 1007,5 hPa 0,0 l/m 2 min 0 min 280 W/m 16,1 km/h (3 Bft) 95,74 %
22.09.2019 15:22 27,3 C 28,3 C 26,7 C 51 % 1007,5 hPa 0,0 l/m 2 min 0 min 328 W/m 19,3 km/h (3 Bft) 95,74 %
22.09.2019 15:24 27,3 C 28,9 C 26,7 C 51 % 1007,4 hPa 0,0 l/m 2 min 0 min 360 W/m 9,7 km/h (2 Bft) 93,62 %
22.09.2019 15:26 27,3 C 28,9 C 26,7 C 52 % 1007,5 hPa 0,0 l/m 2 min 0 min 361 W/m 16,1 km/h (3 Bft) 97,87 %
22.09.2019 15:28 27,4 C 29,4 C 27,2 C 52 % 1007,4 hPa 0,0 l/m 2 min 0 min 405 W/m 12,9 km/h (3 Bft) 97,83 %
22.09.2019 15:30 27,4 C 29,4 C 27,2 C 52 % 1007,3 hPa 0,0 l/m 2 min 0 min 357 W/m 9,7 km/h (2 Bft) 95,74 %
22.09.2019 15:32 27,4 C 29,4 C 27,2 C 52 % 1007,5 hPa 0,0 l/m 2 min 0 min 376 W/m 12,9 km/h (3 Bft) 100,00 %
22.09.2019 15:34 27,5 C 30,0 C 27,2 C 52 % 1007,3 hPa 0,0 l/m 2 min 0 min 408 W/m 16,1 km/h (3 Bft) 97,87 %
22.09.2019 15:36 27,6 C 31,7 C 27,8 C 52 % 1007,4 hPa 0,0 l/m 2 min 0 min 548 W/m 19,3 km/h (3 Bft) 97,87 %
22.09.2019 15:38 27,6 C 31,1 C 27,8 C 51 % 1007,3 hPa 0,0 l/m 2 min 0 min 548 W/m 25,7 km/h (4 Bft) 100,00 %
22.09.2019 15:40 27,7 C 30,6 C 27,8 C 51 % 1007,2 hPa 0,0 l/m 2 min 0 min 541 W/m 19,3 km/h (3 Bft) 100,00 %
22.09.2019 15:42 27,7 C 30,0 C 27,8 C 51 % 1007,3 hPa 0,0 l/m 2 min 0 min 335 W/m 25,7 km/h (4 Bft) 100,00 %
22.09.2019 15:44 27,8 C 30,6 C 27,8 C 52 % 1007,2 hPa 0,0 l/m 2 min 0 min 441 W/m 19,3 km/h (3 Bft) 97,87 %
22.09.2019 15:46 27,8 C 31,1 C 27,8 C 51 % 1007,2 hPa 0,0 l/m 2 min 0 min 517 W/m 12,9 km/h (3 Bft) 100,00 %
22.09.2019 15:48 27,9 C 30,6 C 27,8 C 52 % 1007,1 hPa 0,0 l/m 2 min 0 min 421 W/m 16,1 km/h (3 Bft) 100,00 %
22.09.2019 15:50 27,9 C 31,1 C 27,8 C 51 % 1007,1 hPa 0,0 l/m 2 min 0 min 426 W/m 19,3 km/h (3 Bft) 100,00 %
22.09.2019 15:52 28,1 C 31,1 C 27,8 C 51 % 1007,1 hPa 0,0 l/m 2 min 0 min 514 W/m 19,3 km/h (3 Bft) 100,00 %
22.09.2019 15:54 28,1 C 31,7 C 27,8 C 50 % 1007,1 hPa 0,0 l/m 2 min 0 min 518 W/m 29,0 km/h (5 Bft) 100,00 %
22.09.2019 15:56 28,2 C 31,1 C 27,8 C 50 % 1007,1 hPa 0,0 l/m 2 min 0 min 574 W/m 29,0 km/h (5 Bft) 100,00 %
22.09.2019 15:58 28,3 C 30,6 C 27,2 C 50 % 1007,2 hPa 0,0 l/m 2 min 0 min 396 W/m 19,3 km/h (3 Bft) 100,00 %
22.09.2019 16:00 28,3 C 31,1 C 27,2 C 50 % 1007,2 hPa 0,0 l/m 2 min 0 min 459 W/m 16,1 km/h (3 Bft) 100,00 %
22.09.2019 16:02 28,3 C 30,6 C 27,2 C 50 % 1007,2 hPa 0,0 l/m 2 min 0 min 412 W/m 12,9 km/h (3 Bft) 97,87 %
22.09.2019 16:04 28,4 C 30,0 C 27,2 C 50 % 1007,2 hPa 0,0 l/m 2 min 0 min 292 W/m 12,9 km/h (3 Bft) 100,00 %
22.09.2019 16:06 28,4 C 29,4 C 27,2 C 50 % 1007,2 hPa 0,0 l/m 0 min 0 min 193 W/m 9,7 km/h (2 Bft) 100,00 %
22.09.2019 16:08 28,4 C 29,4 C 27,2 C 50 % 1007,2 hPa 0,0 l/m 2 min 0 min 333 W/m 22,5 km/h (4 Bft) 100,00 %
22.09.2019 16:10 28,4 C 30,0 C 27,2 C 50 % 1007,2 hPa 0,0 l/m 2 min 0 min 400 W/m 22,5 km/h (4 Bft) 100,00 %
22.09.2019 16:12 28,4 C 31,1 C 27,2 C 50 % 1007,1 hPa 0,0 l/m 2 min 0 min 587 W/m 19,3 km/h (3 Bft) 100,00 %
22.09.2019 16:14 28,4 C 31,7 C 27,8 C 50 % 1007,2 hPa 0,0 l/m 2 min 0 min 579 W/m 22,5 km/h (4 Bft) 100,00 %
22.09.2019 16:16 28,4 C 31,7 C 27,8 C 51 % 1007,1 hPa 0,0 l/m 2 min 0 min 506 W/m 12,9 km/h (3 Bft) 100,00 %
22.09.2019 16:18 28,4 C 31,7 C 27,8 C 50 % 1007,0 hPa 0,0 l/m 2 min 0 min 522 W/m 12,9 km/h (3 Bft) 100,00 %
22.09.2019 16:20 28,5 C 32,2 C 27,8 C 50 % 1007,1 hPa 0,0 l/m 2 min 0 min 579 W/m 22,5 km/h (4 Bft) 100,00 %
22.09.2019 16:22 28,6 C 31,1 C 27,8 C 50 % 1007,2 hPa 0,0 l/m 2 min 0 min 491 W/m 22,5 km/h (4 Bft) 100,00 %
22.09.2019 16:24 28,6 C 30,0 C 27,2 C 50 % 1007,1 hPa 0,0 l/m 2 min 0 min 356 W/m 19,3 km/h (3 Bft) 100,00 %
22.09.2019 16:26 28,6 C 29,4 C 27,2 C 50 % 1007,1 hPa 0,0 l/m 2 min 0 min 233 W/m 12,9 km/h (3 Bft) 100,00 %
22.09.2019 16:28 28,6 C 29,4 C 27,2 C 50 % 1007,1 hPa 0,0 l/m 2 min 0 min 266 W/m 16,1 km/h (3 Bft) 100,00 %
22.09.2019 16:30 28,6 C 28,3 C 26,7 C 50 % 1007,1 hPa 0,0 l/m 2 min 0 min 228 W/m 25,7 km/h (4 Bft) 100,00 %
22.09.2019 16:32 28,5 C 27,8 C 26,7 C 50 % 1007,1 hPa 0,0 l/m 0 min 0 min 198 W/m 16,1 km/h (3 Bft) 100,00 %
22.09.2019 16:34 28,5 C 27,8 C 26,7 C 50 % 1007,0 hPa 0,0 l/m 0 min 0 min 188 W/m 16,1 km/h (3 Bft) 97,87 %
22.09.2019 16:36 28,4 C 27,8 C 26,7 C 50 % 1007,0 hPa 0,0 l/m 0 min 0 min 183 W/m 9,7 km/h (2 Bft) 97,83 %
22.09.2019 16:38 28,4 C 27,8 C 26,7 C 51 % 1007,1 hPa 0,0 l/m 0 min 0 min 181 W/m 12,9 km/h (3 Bft) 100,00 %
22.09.2019 16:40 28,3 C 27,2 C 26,7 C 51 % 1007,0 hPa 0,0 l/m 0 min 0 min 183 W/m 19,3 km/h (3 Bft) 100,00 %
22.09.2019 16:42 28,3 C 27,8 C 26,7 C 51 % 1007,0 hPa 0,0 l/m 0 min 0 min 178 W/m 9,7 km/h (2 Bft) 100,00 %
22.09.2019 16:44 28,2 C 27,2 C 26,7 C 51 % 1007,0 hPa 0,0 l/m 0 min 0 min 170 W/m 16,1 km/h (3 Bft) 100,00 %
22.09.2019 16:46 28,1 C 27,2 C 26,1 C 51 % 1006,9 hPa 0,0 l/m 0 min 0 min 162 W/m 16,1 km/h (3 Bft) 100,00 %
22.09.2019 16:48 28,1 C 27,2 C 26,1 C 51 % 1006,9 hPa 0,0 l/m 0 min 0 min 155 W/m 19,3 km/h (3 Bft) 100,00 %
22.09.2019 16:50 28,0 C 27,2 C 26,1 C 51 % 1006,9 hPa 0,0 l/m 0 min 0 min 153 W/m 25,7 km/h (4 Bft) 100,00 %
22.09.2019 16:52 27,9 C 27,8 C 26,7 C 51 % 1006,8 hPa 0,0 l/m 0 min 0 min 174 W/m 16,1 km/h (3 Bft) 100,00 %
22.09.2019 16:54 27,9 C 28,3 C 27,2 C 51 % 1006,9 hPa 0,0 l/m 2 min 0 min 283 W/m 22,5 km/h (4 Bft) 100,00 %
22.09.2019 16:56 27,9 C 28,3 C 27,2 C 51 % 1006,8 hPa 0,0 l/m 2 min 0 min 251 W/m 22,5 km/h (4 Bft) 100,00 %
22.09.2019 16:58 27,8 C 27,8 C 26,7 C 51 % 1006,9 hPa 0,0 l/m 2 min 0 min 211 W/m 25,7 km/h (4 Bft) 97,87 %
22.09.2019 17:00 27,8 C 28,3 C 26,7 C 52 % 1006,9 hPa 0,0 l/m 2 min 0 min 248 W/m 19,3 km/h (3 Bft) 97,83 %
22.09.2019 17:02 27,8 C 27,8 C 26,7 C 51 % 1006,8 hPa 0,0 l/m 2 min 0 min 242 W/m 22,5 km/h (4 Bft) 97,87 %
22.09.2019 17:04 27,8 C 27,8 C 26,7 C 51 % 1006,8 hPa 0,0 l/m 2 min 0 min 230 W/m 22,5 km/h (4 Bft) 100,00 %
22.09.2019 17:06 27,7 C 27,8 C 26,7 C 52 % 1006,9 hPa 0,0 l/m 2 min 0 min 221 W/m 25,7 km/h (4 Bft) 100,00 %
22.09.2019 17:08 27,7 C 27,2 C 26,1 C 51 % 1006,9 hPa 0,0 l/m 2 min 0 min 213 W/m 29,0 km/h (5 Bft) 100,00 %
22.09.2019 17:10 27,6 C 27,2 C 26,1 C 51 % 1006,9 hPa 0,0 l/m 2 min 0 min 215 W/m 22,5 km/h (4 Bft) 100,00 %
22.09.2019 17:12 27,6 C 27,2 C 26,1 C 51 % 1006,9 hPa 0,0 l/m 2 min 0 min 227 W/m 29,0 km/h (5 Bft) 100,00 %
22.09.2019 17:14 27,6 C 27,8 C 26,1 C 51 % 1006,9 hPa 0,0 l/m 2 min 0 min 235 W/m 32,2 km/h (5 Bft) 100,00 %
22.09.2019 17:16 27,5 C 27,2 C 26,1 C 51 % 1006,9 hPa 0,0 l/m 2 min 0 min 231 W/m 22,5 km/h (4 Bft) 100,00 %
22.09.2019 17:18 27,5 C 27,8 C 26,1 C 52 % 1006,9 hPa 0,0 l/m 2 min 0 min 230 W/m 12,9 km/h (3 Bft) 100,00 %
22.09.2019 17:20 27,4 C 27,2 C 26,1 C 51 % 1006,9 hPa 0,0 l/m 2 min 0 min 227 W/m 45,1 km/h (6 Bft) 100,00 %
22.09.2019 17:22 27,4 C 27,2 C 26,1 C 52 % 1006,9 hPa 0,0 l/m 2 min 0 min 208 W/m 25,7 km/h (4 Bft) 97,87 %
22.09.2019 17:24 27,4 C 27,2 C 26,1 C 52 % 1006,8 hPa 0,0 l/m 2 min 0 min 195 W/m 22,5 km/h (4 Bft) 95,65 %
22.09.2019 17:26 27,4 C 27,2 C 26,1 C 52 % 1006,8 hPa 0,0 l/m 2 min 0 min 179 W/m 41,8 km/h (6 Bft) 95,74 %
22.09.2019 17:28 27,3 C 27,2 C 26,1 C 52 % 1006,8 hPa 0,0 l/m 2 min 0 min 195 W/m 29,0 km/h (5 Bft) 93,62 %
22.09.2019 17:30 27,3 C 27,8 C 26,1 C 52 % 1006,8 hPa 0,0 l/m 2 min 0 min 291 W/m 22,5 km/h (4 Bft) 93,62 %
22.09.2019 17:32 27,3 C 28,3 C 26,1 C 52 % 1006,7 hPa 0,0 l/m 2 min 0 min 303 W/m 22,5 km/h (4 Bft) 93,62 %
22.09.2019 17:34 27,3 C 28,3 C 26,1 C 52 % 1006,9 hPa 0,0 l/m 2 min 0 min 287 W/m 22,5 km/h (4 Bft) 93,62 %
22.09.2019 17:36 27,3 C 27,8 C 26,1 C 52 % 1006,8 hPa 0,0 l/m 2 min 0 min 230 W/m 29,0 km/h (5 Bft) 93,48 %
22.09.2019 17:38 27,3 C 27,2 C 26,1 C 52 % 1006,8 hPa 0,0 l/m 2 min 0 min 167 W/m 35,4 km/h (5 Bft) 93,62 %
22.09.2019 17:40 27,3 C 27,2 C 25,6 C 52 % 1006,9 hPa 0,0 l/m 2 min 0 min 203 W/m 41,8 km/h (6 Bft) 93,62 %
22.09.2019 17:42 27,2 C 27,2 C 25,6 C 52 % 1006,8 hPa 0,0 l/m 2 min 0 min 167 W/m 19,3 km/h (3 Bft) 93,62 %
22.09.2019 17:44 27,2 C 26,7 C 25,6 C 52 % 1006,8 hPa 0,0 l/m 0 min 0 min 128 W/m 22,5 km/h (4 Bft) 95,74 %
22.09.2019 17:46 27,2 C 26,7 C 25,6 C 52 % 1006,8 hPa 0,0 l/m 0 min 0 min 110 W/m 16,1 km/h (3 Bft) 91,49 %
22.09.2019 17:48 27,2 C 26,7 C 25,6 C 52 % 1006,8 hPa 0,0 l/m 0 min 0 min 100 W/m 22,5 km/h (4 Bft) 93,48 %
22.09.2019 17:50 27,2 C 26,7 C 25,6 C 52 % 1006,8 hPa 0,0 l/m 0 min 0 min 94 W/m 22,5 km/h (4 Bft) 93,62 %
22.09.2019 17:52 27,1 C 26,1 C 25,6 C 52 % 1006,8 hPa 0,0 l/m 0 min 0 min 91 W/m 22,5 km/h (4 Bft) 91,49 %
22.09.2019 17:54 27,1 C 26,1 C 25,6 C 52 % 1006,8 hPa 0,0 l/m 0 min 0 min 87 W/m 25,7 km/h (4 Bft) 93,62 %
22.09.2019 17:56 27,1 C 26,1 C 25,6 C 52 % 1006,8 hPa 0,0 l/m 0 min 0 min 85 W/m 19,3 km/h (3 Bft) 91,49 %
22.09.2019 17:58 27,0 C 26,1 C 25,0 C 52 % 1006,8 hPa 0,0 l/m 0 min 0 min 83 W/m 12,9 km/h (3 Bft) 93,48 %
22.09.2019 18:00 26,9 C 26,1 C 25,0 C 53 % 1006,9 hPa 0,0 l/m 0 min 0 min 80 W/m 16,1 km/h (3 Bft) 93,62 %
22.09.2019 18:02 26,9 C 25,6 C 25,0 C 53 % 1006,8 hPa 0,0 l/m 0 min 0 min 78 W/m 16,1 km/h (3 Bft) 93,62 %
22.09.2019 18:04 26,9 C 25,6 C 25,0 C 53 % 1006,8 hPa 0,0 l/m 0 min 0 min 74 W/m 19,3 km/h (3 Bft) 95,74 %
22.09.2019 18:08 26,7 C 25,6 C 25,0 C 53 % 1006,9 hPa 0,0 l/m 0 min 0 min 70 W/m 25,7 km/h (4 Bft) 93,62 %
22.09.2019 18:10 26,7 C 25,6 C 25,0 C 53 % 1006,9 hPa 0,0 l/m 0 min 0 min 69 W/m 22,5 km/h (4 Bft) 95,65 %
22.09.2019 18:12 26,6 C 25,6 C 25,0 C 53 % 1006,9 hPa 0,0 l/m 0 min 0 min 68 W/m 22,5 km/h (4 Bft) 95,74 %
22.09.2019 18:14 26,6 C 25,0 C 24,4 C 53 % 1006,9 hPa 0,0 l/m 0 min 0 min 67 W/m 22,5 km/h (4 Bft) 93,62 %
22.09.2019 18:16 26,5 C 25,0 C 24,4 C 53 % 1006,9 hPa 0,0 l/m 0 min 0 min 64 W/m 22,5 km/h (4 Bft) 95,74 %
22.09.2019 18:18 26,4 C 25,0 C 24,4 C 53 % 1007,0 hPa 0,0 l/m 0 min 0 min 63 W/m 16,1 km/h (3 Bft) 93,62 %
22.09.2019 18:20 26,4 C 25,0 C 24,4 C 54 % 1007,0 hPa 0,0 l/m 0 min 0 min 63 W/m 29,0 km/h (5 Bft) 97,87 %
22.09.2019 18:22 26,3 C 25,0 C 24,4 C 54 % 1006,9 hPa 0,0 l/m 0 min 0 min 63 W/m 25,7 km/h (4 Bft) 95,65 %
22.09.2019 18:24 26,3 C 25,0 C 24,4 C 54 % 1006,9 hPa 0,0 l/m 0 min 0 min 63 W/m 19,3 km/h (3 Bft) 97,87 %
22.09.2019 18:26 26,2 C 25,0 C 24,4 C 54 % 1007,0 hPa 0,0 l/m 0 min 0 min 63 W/m 25,7 km/h (4 Bft) 97,87 %
22.09.2019 18:28 26,2 C 25,0 C 24,4 C 54 % 1007,0 hPa 0,0 l/m 0 min 0 min 60 W/m 16,1 km/h (3 Bft) 97,87 %
22.09.2019 18:30 26,2 C 25,0 C 24,4 C 54 % 1007,0 hPa 0,0 l/m 0 min 0 min 58 W/m 16,1 km/h (3 Bft) 95,74 %
22.09.2019 18:32 26,1 C 25,0 C 24,4 C 54 % 1006,9 hPa 0,0 l/m 0 min 0 min 56 W/m 16,1 km/h (3 Bft) 97,87 %
22.09.2019 18:34 26,1 C 25,0 C 24,4 C 55 % 1006,9 hPa 0,0 l/m 0 min 0 min 54 W/m 25,7 km/h (4 Bft) 97,83 %
22.09.2019 18:36 26,1 C 25,0 C 24,4 C 55 % 1006,9 hPa 0,0 l/m 0 min 0 min 50 W/m 22,5 km/h (4 Bft) 95,74 %
22.09.2019 18:38 26,0 C 25,0 C 24,4 C 55 % 1006,9 hPa 0,0 l/m 0 min 0 min 47 W/m 19,3 km/h (3 Bft) 97,87 %
22.09.2019 18:40 26,0 C 25,0 C 24,4 C 55 % 1006,9 hPa 0,0 l/m 0 min 0 min 45 W/m 16,1 km/h (3 Bft) 95,74 %
22.09.2019 18:42 25,9 C 25,0 C 24,4 C 55 % 1006,9 hPa 0,0 l/m 0 min 0 min 44 W/m 16,1 km/h (3 Bft) 97,87 %
22.09.2019 18:44 25,9 C 24,4 C 24,4 C 55 % 1006,9 hPa 0,0 l/m 0 min 0 min 43 W/m 16,1 km/h (3 Bft) 100,00 %
22.09.2019 18:46 25,9 C 24,4 C 24,4 C 55 % 1006,9 hPa 0,0 l/m 0 min 0 min 40 W/m 29,0 km/h (5 Bft) 100,00 %
22.09.2019 18:48 25,8 C 24,4 C 23,9 C 55 % 1006,9 hPa 0,0 l/m 0 min 0 min 39 W/m 12,9 km/h (3 Bft) 97,87 %
22.09.2019 18:50 25,8 C 24,4 C 23,9 C 55 % 1006,9 hPa 0,0 l/m 0 min 0 min 36 W/m 19,3 km/h (3 Bft) 100,00 %
22.09.2019 18:52 25,7 C 24,4 C 23,9 C 55 % 1006,9 hPa 0,0 l/m 0 min 0 min 34 W/m 16,1 km/h (3 Bft) 95,74 %
22.09.2019 18:54 25,7 C 24,4 C 23,9 C 55 % 1007,0 hPa 0,0 l/m 0 min 0 min 32 W/m 12,9 km/h (3 Bft) 100,00 %
22.09.2019 18:56 25,7 C 24,4 C 23,9 C 56 % 1006,9 hPa 0,0 l/m 0 min 0 min 31 W/m 9,7 km/h (2 Bft) 100,00 %
22.09.2019 18:58 25,6 C 24,4 C 23,9 C 56 % 1007,0 hPa 0,0 l/m 0 min 0 min 29 W/m 16,1 km/h (3 Bft) 95,65 %
22.09.2019 19:00 25,6 C 24,4 C 23,9 C 56 % 1007,0 hPa 0,0 l/m 0 min 0 min 27 W/m 9,7 km/h (2 Bft) 100,00 %
22.09.2019 19:02 25,6 C 24,4 C 23,9 C 56 % 1007,0 hPa 0,0 l/m 0 min 0 min 25 W/m 12,9 km/h (3 Bft) 97,87 %
22.09.2019 19:04 25,5 C 23,9 C 23,9 C 56 % 1007,0 hPa 0,0 l/m 0 min 0 min 23 W/m 12,9 km/h (3 Bft) 100,00 %
22.09.2019 19:06 25,5 C 23,9 C 23,9 C 56 % 1007,0 hPa 0,0 l/m 0 min 0 min 22 W/m 19,3 km/h (3 Bft) 100,00 %
22.09.2019 19:08 25,4 C 23,9 C 23,9 C 56 % 1007,0 hPa 0,0 l/m 0 min 0 min 19 W/m 9,7 km/h (2 Bft) 100,00 %
22.09.2019 19:10 25,4 C 23,9 C 23,3 C 56 % 1007,0 hPa 0,0 l/m 0 min 0 min 18 W/m 9,7 km/h (2 Bft) 100,00 %
22.09.2019 19:12 25,4 C 23,9 C 23,3 C 56 % 1007,0 hPa 0,0 l/m 0 min 0 min 16 W/m 9,7 km/h (2 Bft) 97,83 %
22.09.2019 19:14 25,3 C 23,9 C 23,3 C 56 % 1007,0 hPa 0,0 l/m 0 min 0 min 14 W/m 12,9 km/h (3 Bft) 100,00 %
22.09.2019 19:16 25,3 C 23,9 C 23,3 C 56 % 1007,0 hPa 0,0 l/m 0 min 0 min 12 W/m 16,1 km/h (3 Bft) 100,00 %
22.09.2019 19:18 25,2 C 23,9 C 23,3 C 56 % 1006,9 hPa 0,0 l/m 0 min 0 min 11 W/m 16,1 km/h (3 Bft) 100,00 %
22.09.2019 19:20 25,2 C 23,9 C 23,3 C 56 % 1006,9 hPa 0,0 l/m 0 min 0 min 11 W/m 25,7 km/h (4 Bft) 100,00 %
22.09.2019 19:22 25,2 C 23,3 C 23,3 C 57 % 1006,9 hPa 0,0 l/m 0 min 0 min 9 W/m 12,9 km/h (3 Bft) 100,00 %
22.09.2019 19:24 25,1 C 23,3 C 23,3 C 57 % 1007,0 hPa 0,0 l/m 0 min 0 min 7 W/m 22,5 km/h (4 Bft) 100,00 %
22.09.2019 19:26 25,1 C 23,3 C 23,3 C 57 % 1006,9 hPa 0,0 l/m 0 min 0 min 6 W/m 9,7 km/h (2 Bft) 100,00 %
22.09.2019 19:28 25,1 C 23,3 C 23,3 C 57 % 1006,9 hPa 0,0 l/m 0 min 0 min 5 W/m 19,3 km/h (3 Bft) 100,00 %
22.09.2019 19:30 25,0 C 23,3 C 22,8 C 57 % 1006,9 hPa 0,0 l/m 0 min 0 min 2 W/m 22,5 km/h (4 Bft) 100,00 %
22.09.2019 19:32 24,9 C 23,3 C 22,8 C 57 % 1007,0 hPa 0,0 l/m 0 min 0 min 0 W/m 12,9 km/h (3 Bft) 100,00 %
22.09.2019 19:34 24,9 C 23,3 C 22,8 C 57 % 1006,9 hPa 0,0 l/m 0 min 0 min 0 W/m 12,9 km/h (3 Bft) 100,00 %
22.09.2019 19:36 24,8 C 23,3 C 22,8 C 57 % 1006,9 hPa 0,0 l/m 0 min 0 min 0 W/m 12,9 km/h (3 Bft) 100,00 %
22.09.2019 19:38 24,8 C 22,8 C 22,8 C 58 % 1006,9 hPa 0,0 l/m 0 min 0 min 0 W/m 12,9 km/h (3 Bft) 100,00 %
22.09.2019 19:40 24,7 C 22,8 C 22,8 C 58 % 1006,9 hPa 0,0 l/m 0 min 0 min 0 W/m 6,4 km/h (2 Bft) 100,00 %
22.09.2019 19:42 24,7 C 22,8 C 22,8 C 58 % 1007,0 hPa 0,0 l/m 0 min 0 min 0 W/m 16,1 km/h (3 Bft) 100,00 %
22.09.2019 19:44 24,6 C 22,8 C 22,8 C 58 % 1007,0 hPa 0,0 l/m 0 min 0 min 0 W/m 9,7 km/h (2 Bft) 100,00 %
22.09.2019 19:46 24,6 C 22,8 C 22,8 C 58 % 1007,0 hPa 0,0 l/m 0 min 0 min 0 W/m 9,7 km/h (2 Bft) 100,00 %
22.09.2019 19:48 24,5 C 22,8 C 22,8 C 58 % 1007,0 hPa 0,0 l/m 0 min 0 min 0 W/m 12,9 km/h (3 Bft) 100,00 %
22.09.2019 19:50 24,4 C 22,8 C 22,2 C 58 % 1007,0 hPa 0,0 l/m 0 min 0 min 0 W/m 16,1 km/h (3 Bft) 100,00 %
22.09.2019 19:52 24,4 C 22,8 C 22,2 C 58 % 1007,1 hPa 0,0 l/m 0 min 0 min 0 W/m 19,3 km/h (3 Bft) 100,00 %
22.09.2019 19:53 24,3 C 22,8 C 22,2 C 59 % 1007,1 hPa 0,0 l/m 0 min 0 min 0 W/m 16,1 km/h (3 Bft) 97,87 %
22.09.2019 19:56 24,3 C 22,8 C 22,2 C 59 % 1007,0 hPa 0,0 l/m 0 min 0 min 0 W/m 9,7 km/h (2 Bft) 97,87 %
22.09.2019 19:58 24,3 C 22,8 C 22,2 C 59 % 1007,1 hPa 0,0 l/m 0 min 0 min 0 W/m 12,9 km/h (3 Bft) 98,28 %
22.09.2019 20:00 24,2 C 22,8 C 22,2 C 59 % 1007,1 hPa 0,0 l/m 0 min 0 min 0 W/m 19,3 km/h (3 Bft) 97,87 %
22.09.2019 20:02 24,2 C 22,8 C 22,2 C 59 % 1007,1 hPa 0,0 l/m 0 min 0 min 0 W/m 12,9 km/h (3 Bft) 97,14 %
22.09.2019 20:04 24,1 C 22,2 C 22,2 C 59 % 1007,1 hPa 0,0 l/m 0 min 0 min 0 W/m 16,1 km/h (3 Bft) 97,87 %
22.09.2019 20:06 24,1 C 22,2 C 22,2 C 59 % 1007,1 hPa 0,0 l/m 0 min 0 min 0 W/m 12,9 km/h (3 Bft) 96,61 %
22.09.2019 20:08 24,0 C 22,2 C 22,2 C 60 % 1007,1 hPa 0,0 l/m 0 min 0 min 0 W/m 9,7 km/h (2 Bft) 97,14 %
22.09.2019 20:10 24,0 C 22,2 C 22,2 C 60 % 1007,2 hPa 0,0 l/m 0 min 0 min 0 W/m 16,1 km/h (3 Bft) 97,87 %
22.09.2019 20:12 23,9 C 22,2 C 22,2 C 60 % 1007,1 hPa 0,0 l/m 0 min 0 min 0 W/m 19,3 km/h (3 Bft) 96,55 %
22.09.2019 20:14 23,9 C 22,2 C 22,2 C 60 % 1007,2 hPa 0,0 l/m 0 min 0 min 0 W/m 9,7 km/h (2 Bft) 97,14 %
22.09.2019 20:16 23,9 C 22,2 C 22,2 C 60 % 1007,3 hPa 0,0 l/m 0 min 0 min 0 W/m 9,7 km/h (2 Bft) 97,87 %
22.09.2019 20:18 23,8 C 22,2 C 21,7 C 60 % 1007,3 hPa 0,0 l/m 0 min 0 min 0 W/m 6,4 km/h (2 Bft) 97,87 %
22.09.2019 20:20 23,8 C 22,2 C 21,7 C 60 % 1007,3 hPa 0,0 l/m 0 min 0 min 0 W/m 12,9 km/h (3 Bft) 97,87 %
22.09.2019 20:22 23,7 C 22,2 C 21,7 C 60 % 1007,2 hPa 0,0 l/m 0 min 0 min 0 W/m 19,3 km/h (3 Bft) 96,55 %
22.09.2019 20:24 23,7 C 22,2 C 21,7 C 61 % 1007,3 hPa 0,0 l/m 0 min 0 min 0 W/m 16,1 km/h (3 Bft) 94,29 %
22.09.2019 20:26 23,7 C 22,2 C 21,7 C 61 % 1007,3 hPa 0,0 l/m 0 min 0 min 0 W/m 12,9 km/h (3 Bft) 97,87 %
22.09.2019 20:28 23,6 C 22,2 C 21,7 C 61 % 1007,3 hPa 0,0 l/m 0 min 0 min 0 W/m 16,1 km/h (3 Bft) 97,87 %
22.09.2019 20:30 23,6 C 22,2 C 21,7 C 61 % 1007,3 hPa 0,0 l/m 0 min 0 min 0 W/m 12,9 km/h (3 Bft) 97,87 %
22.09.2019 20:32 23,5 C 22,2 C 21,7 C 61 % 1007,3 hPa 0,0 l/m 0 min 0 min 0 W/m 9,7 km/h (2 Bft) 98,28 %
22.09.2019 20:34 23,5 C 21,7 C 21,7 C 61 % 1007,2 hPa 0,0 l/m 0 min 0 min 0 W/m 9,7 km/h (2 Bft) 97,22 %
22.09.2019 20:36 23,4 C 21,7 C 21,7 C 61 % 1007,3 hPa 0,0 l/m 0 min 0 min 0 W/m 19,3 km/h (3 Bft) 94,83 %
22.09.2019 20:38 23,4 C 21,7 C 21,7 C 61 % 1007,3 hPa 0,0 l/m 0 min 0 min 0 W/m 16,1 km/h (3 Bft) 100,00 %
22.09.2019 20:40 23,3 C 21,7 C 21,7 C 61 % 1007,3 hPa 0,0 l/m 0 min 0 min 0 W/m 9,7 km/h (2 Bft) 97,87 %
22.09.2019 20:42 23,3 C 21,7 C 21,1 C 61 % 1007,3 hPa 0,0 l/m 0 min 0 min 0 W/m 9,7 km/h (2 Bft) 95,74 %
22.09.2019 20:44 23,3 C 21,7 C 21,1 C 61 % 1007,3 hPa 0,0 l/m 0 min 0 min 0 W/m 9,7 km/h (2 Bft) 95,74 %
22.09.2019 20:46 23,2 C 21,7 C 21,1 C 61 % 1007,3 hPa 0,0 l/m 0 min 0 min 0 W/m 9,7 km/h (2 Bft) 95,74 %
22.09.2019 20:48 23,2 C 21,7 C 21,1 C 61 % 1007,3 hPa 0,0 l/m 0 min 0 min 0 W/m 9,7 km/h (2 Bft) 97,83 %
22.09.2019 20:50 23,2 C 21,7 C 21,1 C 61 % 1007,4 hPa 0,0 l/m 0 min 0 min 0 W/m 9,7 km/h (2 Bft) 95,74 %
22.09.2019 20:52 23,1 C 21,7 C 21,1 C 61 % 1007,4 hPa 0,0 l/m 0 min 0 min 0 W/m 16,1 km/h (3 Bft) 97,87 %
22.09.2019 20:54 23,1 C 21,7 C 21,1 C 61 % 1007,4 hPa 0,0 l/m 0 min 0 min 0 W/m 9,7 km/h (2 Bft) 93,62 %
22.09.2019 20:56 23,1 C 21,7 C 21,1 C 61 % 1007,5 hPa 0,0 l/m 0 min 0 min 0 W/m 16,1 km/h (3 Bft) 97,87 %
22.09.2019 20:58 23,0 C 21,7 C 21,1 C 62 % 1007,6 hPa 0,0 l/m 0 min 0 min 0 W/m 6,4 km/h (2 Bft) 97,83 %
22.09.2019 21:00 23,0 C 21,7 C 21,1 C 62 % 1007,6 hPa 0,0 l/m 0 min 0 min 0 W/m 9,7 km/h (2 Bft) 95,74 %
22.09.2019 21:02 22,9 C 21,7 C 21,1 C 62 % 1007,7 hPa 0,0 l/m 0 min 0 min 0 W/m 9,7 km/h (2 Bft) 95,74 %
22.09.2019 21:04 22,9 C 21,7 C 21,1 C 62 % 1007,7 hPa 0,0 l/m 0 min 0 min 0 W/m 12,9 km/h (3 Bft) 95,74 %
22.09.2019 21:06 22,9 C 21,7 C 21,1 C 62 % 1007,7 hPa 0,0 l/m 0 min 0 min 0 W/m 12,9 km/h (3 Bft) 93,22 %
22.09.2019 21:08 22,8 C 21,7 C 21,1 C 62 % 1007,7 hPa 0,0 l/m 0 min 0 min 0 W/m 9,7 km/h (2 Bft) 94,29 %
22.09.2019 21:10 22,8 C 21,7 C 21,1 C 62 % 1007,7 hPa 0,0 l/m 0 min 0 min 0 W/m 9,7 km/h (2 Bft) 96,55 %
22.09.2019 21:12 22,8 C 21,7 C 21,1 C 62 % 1007,6 hPa 0,0 l/m 0 min 0 min 0 W/m 9,7 km/h (2 Bft) 95,74 %
22.09.2019 21:14 22,8 C 21,7 C 21,1 C 62 % 1007,7 hPa 0,0 l/m 0 min 0 min 0 W/m 9,7 km/h (2 Bft) 94,29 %
22.09.2019 21:16 22,7 C 21,7 C 21,1 C 62 % 1007,7 hPa 0,0 l/m 0 min 0 min 0 W/m 9,7 km/h (2 Bft) 95,74 %
22.09.2019 21:18 22,7 C 21,7 C 21,1 C 62 % 1007,8 hPa 0,0 l/m 0 min 0 min 0 W/m 9,7 km/h (2 Bft) 95,74 %
22.09.2019 21:20 22,7 C 21,7 C 21,1 C 62 % 1007,8 hPa 0,0 l/m 0 min 0 min 0 W/m 9,7 km/h (2 Bft) 95,74 %
22.09.2019 21:22 22,7 C 21,7 C 21,1 C 62 % 1008,1 hPa 0,0 l/m 0 min 0 min 0 W/m 12,9 km/h (3 Bft) 95,65 %
22.09.2019 21:24 22,7 C 21,7 C 21,1 C 63 % 1008,4 hPa 0,0 l/m 0 min 0 min 0 W/m 6,4 km/h (2 Bft) 95,74 %
22.09.2019 21:26 22,7 C 21,1 C 21,1 C 63 % 1008,3 hPa 0,0 l/m 0 min 0 min 0 W/m 9,7 km/h (2 Bft) 93,62 %
22.09.2019 21:28 22,7 C 21,1 C 21,1 C 63 % 1008,2 hPa 0,0 l/m 0 min 0 min 0 W/m 9,7 km/h (2 Bft) 93,62 %
22.09.2019 21:30 22,6 C 21,1 C 21,1 C 63 % 1008,3 hPa 0,0 l/m 0 min 0 min 0 W/m 6,4 km/h (2 Bft) 95,74 %
22.09.2019 21:32 22,6 C 21,1 C 21,1 C 63 % 1008,4 hPa 0,0 l/m 0 min 0 min 0 W/m 6,4 km/h (2 Bft) 95,74 %
22.09.2019 21:34 22,6 C 21,7 C 21,1 C 64 % 1008,5 hPa 0,0 l/m 0 min 0 min 0 W/m 6,4 km/h (2 Bft) 95,65 %
22.09.2019 21:36 22,6 C 21,1 C 21,1 C 64 % 1008,6 hPa 0,0 l/m 0 min 0 min 0 W/m 9,7 km/h (2 Bft) 94,92 %
22.09.2019 21:38 22,6 C 21,1 C 21,1 C 64 % 1008,6 hPa 0,0 l/m 0 min 0 min 0 W/m 6,4 km/h (2 Bft) 94,29 %
22.09.2019 21:40 22,6 C 21,1 C 21,1 C 64 % 1008,6 hPa 0,0 l/m 0 min 0 min 0 W/m 3,2 km/h (1 Bft) 97,87 %
22.09.2019 21:42 22,6 C 21,1 C 21,1 C 65 % 1008,6 hPa 0,0 l/m 0 min 0 min 0 W/m 3,2 km/h (1 Bft) 98,28 %
22.09.2019 21:44 22,5 C 21,1 C 21,1 C 65 % 1008,6 hPa 0,0 l/m 0 min 0 min 0 W/m 3,2 km/h (1 Bft) 97,22 %
22.09.2019 21:46 22,5 C 21,1 C 21,1 C 65 % 1008,6 hPa 0,0 l/m 0 min 0 min 0 W/m 0,0 km/h (0 Bft) 97,83 %
22.09.2019 21:48 22,5 C 21,1 C 21,1 C 66 % 1008,7 hPa 0,0 l/m 0 min 0 min 0 W/m 19,3 km/h (3 Bft) 97,87 %
22.09.2019 21:50 22,5 C 21,1 C 21,1 C 68 % 1008,7 hPa 0,0 l/m 0 min 0 min 0 W/m 16,1 km/h (3 Bft) 98,31 %
22.09.2019 21:52 22,6 C 21,1 C 21,1 C 69 % 1008,7 hPa 0,0 l/m 0 min 0 min 0 W/m 9,7 km/h (2 Bft) 100,00 %
22.09.2019 21:54 22,5 C 21,1 C 21,1 C 70 % 1008,7 hPa 0,0 l/m 0 min 0 min 0 W/m 12,9 km/h (3 Bft) 100,00 %
22.09.2019 21:56 22,5 C 21,1 C 21,1 C 71 % 1008,9 hPa 0,0 l/m 0 min 0 min 0 W/m 12,9 km/h (3 Bft) 93,48 %
22.09.2019 21:58 22,5 C 21,1 C 21,1 C 72 % 1008,9 hPa 0,0 l/m 0 min 0 min 0 W/m 22,5 km/h (4 Bft) 97,87 %
22.09.2019 22:00 22,5 C 21,1 C 20,6 C 73 % 1008,9 hPa 0,0 l/m 0 min 0 min 0 W/m 29,0 km/h (5 Bft) 100,00 %
22.09.2019 22:02 22,4 C 20,6 C 20,6 C 73 % 1009,0 hPa 0,0 l/m 0 min 0 min 0 W/m 29,0 km/h (5 Bft) 100,00 %
22.09.2019 22:04 22,4 C 20,6 C 20,6 C 74 % 1008,9 hPa 0,0 l/m 0 min 0 min 0 W/m 25,7 km/h (4 Bft) 100,00 %
22.09.2019 22:06 22,3 C 20,6 C 20,6 C 75 % 1008,9 hPa 0,0 l/m 0 min 0 min 0 W/m 29,0 km/h (5 Bft) 100,00 %
22.09.2019 22:08 22,2 C 20,6 C 20,0 C 76 % 1009,0 hPa 0,0 l/m 0 min 0 min 0 W/m 22,5 km/h (4 Bft) 100,00 %
22.09.2019 22:10 22,2 C 20,0 C 20,0 C 77 % 1009,0 hPa 0,0 l/m 0 min 0 min 0 W/m 19,3 km/h (3 Bft) 100,00 %
22.09.2019 22:12 22,1 C 20,0 C 20,0 C 77 % 1008,9 hPa 0,0 l/m 0 min 0 min 0 W/m 19,3 km/h (3 Bft) 97,87 %
22.09.2019 22:14 22,0 C 19,4 C 19,4 C 78 % 1009,0 hPa 0,0 l/m 0 min 2 min 0 W/m 9,7 km/h (2 Bft) 100,00 %
22.09.2019 22:16 21,9 C 18,9 C 18,9 C 79 % 1008,9 hPa 0,0 l/m 0 min 2 min 0 W/m 12,9 km/h (3 Bft) 100,00 %
22.09.2019 22:18 21,9 C 17,8 C 18,3 C 79 % 1008,9 hPa 0,0 l/m 0 min 2 min 0 W/m 12,9 km/h (3 Bft) 100,00 %
22.09.2019 22:20 21,8 C 17,8 C 18,3 C 80 % 1008,9 hPa 0,0 l/m 0 min 2 min 0 W/m 12,9 km/h (3 Bft) 100,00 %
22.09.2019 22:22 21,7 C 17,8 C 17,8 C 81 % 1008,9 hPa 0,0 l/m 0 min 2 min 0 W/m 9,7 km/h (2 Bft) 100,00 %
22.09.2019 22:24 21,6 C 17,8 C 17,8 C 82 % 1009,0 hPa 0,0 l/m 0 min 2 min 0 W/m 9,7 km/h (2 Bft) 100,00 %
22.09.2019 22:26 21,4 C 17,8 C 17,8 C 83 % 1009,0 hPa 0,0 l/m 0 min 2 min 0 W/m 6,4 km/h (2 Bft) 100,00 %
22.09.2019 22:28 21,4 C 17,8 C 17,8 C 83 % 1008,9 hPa 0,0 l/m 0 min 2 min 0 W/m 3,2 km/h (1 Bft) 100,00 %
22.09.2019 22:30 21,3 C 17,8 C 17,2 C 83 % 1008,9 hPa 0,0 l/m 0 min 2 min 0 W/m 9,7 km/h (2 Bft) 100,00 %
22.09.2019 22:32 21,1 C 17,2 C 17,2 C 84 % 1008,9 hPa 0,0 l/m 0 min 2 min 0 W/m 6,4 km/h (2 Bft) 100,00 %
22.09.2019 22:34 21,0 C 17,2 C 17,2 C 85 % 1008,9 hPa 0,0 l/m 0 min 2 min 0 W/m 6,4 km/h (2 Bft) 97,87 %
22.09.2019 22:36 20,9 C 17,2 C 17,2 C 85 % 1009,0 hPa 0,2 l/m 0 min 2 min 0 W/m 12,9 km/h (3 Bft) 97,87 %
22.09.2019 22:38 20,7 C 17,2 C 17,2 C 86 % 1008,8 hPa 0,0 l/m 0 min 2 min 0 W/m 3,2 km/h (1 Bft) 95,74 %
22.09.2019 22:40 20,6 C 17,2 C 17,2 C 86 % 1008,9 hPa 0,0 l/m 0 min 2 min 0 W/m 16,1 km/h (3 Bft) 95,74 %
22.09.2019 22:42 20,5 C 17,2 C 17,2 C 87 % 1009,0 hPa 0,0 l/m 0 min 2 min 0 W/m 9,7 km/h (2 Bft) 97,83 %
22.09.2019 22:44 20,4 C 17,2 C 17,2 C 87 % 1009,0 hPa 0,0 l/m 0 min 2 min 0 W/m 3,2 km/h (1 Bft) 97,87 %
22.09.2019 22:46 20,3 C 17,2 C 17,2 C 88 % 1009,0 hPa 0,0 l/m 0 min 2 min 0 W/m 3,2 km/h (1 Bft) 97,87 %
22.09.2019 22:48 20,2 C 17,2 C 17,2 C 88 % 1009,0 hPa 0,0 l/m 0 min 2 min 0 W/m 9,7 km/h (2 Bft) 97,87 %
22.09.2019 22:50 20,2 C 17,2 C 17,2 C 88 % 1009,1 hPa 0,0 l/m 0 min 2 min 0 W/m 6,4 km/h (2 Bft) 97,87 %
22.09.2019 22:52 20,1 C 17,2 C 17,2 C 88 % 1009,1 hPa 0,0 l/m 0 min 2 min 0 W/m 3,2 km/h (1 Bft) 97,83 %
22.09.2019 22:54 20,0 C 17,2 C 17,2 C 89 % 1009,1 hPa 0,0 l/m 0 min 2 min 0 W/m 3,2 km/h (1 Bft) 97,87 %
22.09.2019 22:56 19,9 C 17,2 C 17,2 C 89 % 1009,2 hPa 0,0 l/m 0 min 2 min 0 W/m 6,4 km/h (2 Bft) 95,74 %
22.09.2019 22:58 19,8 C 17,2 C 16,7 C 89 % 1009,2 hPa 0,0 l/m 0 min 0 min 0 W/m 3,2 km/h (1 Bft) 97,87 %
22.09.2019 23:00 19,8 C 17,2 C 16,7 C 89 % 1009,3 hPa 0,0 l/m 0 min 2 min 0 W/m 3,2 km/h (1 Bft) 95,74 %
22.09.2019 23:02 19,7 C 16,7 C 16,7 C 89 % 1009,3 hPa 0,0 l/m 0 min 2 min 0 W/m 9,7 km/h (2 Bft) 95,74 %
22.09.2019 23:04 19,6 C 16,7 C 16,7 C 89 % 1009,3 hPa 0,2 l/m 0 min 2 min 0 W/m 9,7 km/h (2 Bft) 97,83 %
22.09.2019 23:06 19,6 C 16,7 C 16,7 C 90 % 1009,3 hPa 0,0 l/m 0 min 2 min 0 W/m 6,4 km/h (2 Bft) 97,87 %
22.09.2019 23:08 19,4 C 16,7 C 16,7 C 90 % 1009,3 hPa 0,0 l/m 0 min 2 min 0 W/m 3,2 km/h (1 Bft) 97,87 %
22.09.2019 23:10 19,4 C 16,7 C 16,7 C 90 % 1009,3 hPa 0,2 l/m 0 min 2 min 0 W/m 3,2 km/h (1 Bft) 97,87 %
22.09.2019 23:12 19,4 C 16,7 C 16,7 C 90 % 1009,3 hPa 0,0 l/m 0 min 2 min 0 W/m 6,4 km/h (2 Bft) 97,87 %
22.09.2019 23:14 19,3 C 16,7 C 16,7 C 90 % 1009,3 hPa 0,0 l/m 0 min 2 min 0 W/m 3,2 km/h (1 Bft) 95,74 %
22.09.2019 23:16 19,2 C 16,7 C 16,7 C 91 % 1009,5 hPa 0,0 l/m 0 min 2 min 0 W/m 6,4 km/h (2 Bft) 97,83 %
22.09.2019 23:18 19,2 C 16,7 C 16,7 C 91 % 1009,4 hPa 0,2 l/m 0 min 2 min 0 W/m 3,2 km/h (1 Bft) 97,87 %
22.09.2019 23:20 19,2 C 16,7 C 16,7 C 91 % 1009,5 hPa 0,0 l/m 0 min 2 min 0 W/m 6,4 km/h (2 Bft) 100,00 %
22.09.2019 23:22 19,1 C 16,7 C 16,7 C 91 % 1009,6 hPa 0,0 l/m 0 min 2 min 0 W/m 3,2 km/h (1 Bft) 97,87 %
22.09.2019 23:24 19,1 C 16,7 C 16,7 C 91 % 1009,6 hPa 0,0 l/m 0 min 2 min 0 W/m 3,2 km/h (1 Bft) 100,00 %
22.09.2019 23:26 19,0 C 16,7 C 16,7 C 92 % 1009,6 hPa 0,2 l/m 0 min 2 min 0 W/m 3,2 km/h (1 Bft) 97,87 %
22.09.2019 23:28 18,9 C 16,7 C 16,7 C 92 % 1009,7 hPa 0,4 l/m 0 min 2 min 0 W/m 6,4 km/h (2 Bft) 100,00 %
22.09.2019 23:30 18,9 C 16,7 C 16,7 C 92 % 1009,7 hPa 0,2 l/m 0 min 2 min 0 W/m 6,4 km/h (2 Bft) 95,74 %
22.09.2019 23:32 18,8 C 16,7 C 16,7 C 92 % 1009,7 hPa 0,0 l/m 0 min 2 min 0 W/m 6,4 km/h (2 Bft) 100,00 %
22.09.2019 23:34 18,8 C 16,7 C 16,7 C 92 % 1009,7 hPa 0,2 l/m 0 min 2 min 0 W/m 6,4 km/h (2 Bft) 97,87 %
22.09.2019 23:36 18,8 C 16,7 C 16,7 C 92 % 1009,7 hPa 0,0 l/m 0 min 2 min 0 W/m 3,2 km/h (1 Bft) 100,00 %
22.09.2019 23:38 18,7 C 16,7 C 16,7 C 93 % 1009,8 hPa 0,0 l/m 0 min 2 min 0 W/m 6,4 km/h (2 Bft) 97,87 %
22.09.2019 23:40 18,7 C 16,7 C 16,7 C 93 % 1009,8 hPa 0,0 l/m 0 min 2 min 0 W/m 6,4 km/h (2 Bft) 97,83 %
22.09.2019 23:42 18,7 C 16,7 C 16,7 C 93 % 1009,8 hPa 0,2 l/m 0 min 2 min 0 W/m 6,4 km/h (2 Bft) 100,00 %
22.09.2019 23:44 18,6 C 16,7 C 16,7 C 93 % 1009,9 hPa 0,0 l/m 0 min 2 min 0 W/m 6,4 km/h (2 Bft) 95,74 %
22.09.2019 23:46 18,6 C 16,7 C 16,7 C 93 % 1009,9 hPa 0,0 l/m 0 min 2 min 0 W/m 9,7 km/h (2 Bft) 97,87 %
22.09.2019 23:48 18,6 C 16,7 C 16,7 C 93 % 1010,0 hPa 0,0 l/m 0 min 2 min 0 W/m 3,2 km/h (1 Bft) 97,87 %
22.09.2019 23:50 18,6 C 16,7 C 16,7 C 94 % 1009,9 hPa 0,0 l/m 0 min 2 min 0 W/m 3,2 km/h (1 Bft) 97,83 %
22.09.2019 23:52 18,5 C 16,7 C 16,7 C 93 % 1009,9 hPa 0,0 l/m 0 min 2 min 0 W/m 3,2 km/h (1 Bft) 100,00 %
22.09.2019 23:54 18,5 C 16,7 C 16,7 C 94 % 1010,0 hPa 0,0 l/m 0 min 0 min 0 W/m 9,7 km/h (2 Bft) 100,00 %
22.09.2019 23:56 18,4 C 16,7 C 16,7 C 94 % 1010,1 hPa 0,0 l/m 0 min 0 min 0 W/m 16,1 km/h (3 Bft) 97,87 %
22.09.2019 23:58 18,4 C 16,7 C 16,1 C 94 % 1010,0 hPa 0,0 l/m 0 min 0 min 0 W/m 16,1 km/h (3 Bft) 95,74 %
_ Min-Zeit 03:28 01:24 01:22 14:38 17:32 - - - - 00:00 07:38
Minimum _ 14,2 C 12,8 C 11,7 C 48 % 1006,7 hPa - - - - 0,0 km/h (0 Bft) 89,36 %
_ Max-Zeit 16:22 14:24 13:42 23:50 00:00 23:28 12:08 22:14 13:38 17:20 00:54
Maximum _ 28,6 C 33,3 C 32,2 C 94 % 1013,4 hPa 0,4 l/m 4 min 2 min 835 W/m 45,1 km/h
O (6 Bft)
100,00 %
Durchschnitt _ 20,4 C 20,6 C 19,2 C 61 % 1009,5 hPa #2,0 l/m #7:16 h #1:38 h 321 W/m 14,8 km/h (3 Bft) 97,49 %
© 2019 W. Hausmann